<- Previous Day | Today | Next Day ->

All Data for 26 January 2021

 

Time A - D Temp A - D Dew Point A - D Humidity A - D Pressure A - D Wind A - D Wind Dir Gust A - D Rain Rate A - D Rain Total
00:01 4.5 -0.5 70 1015.9 5.4 SW 5.4 0.0 0.0
00:02 4.5 -0.5 70 1016.0 5.4 SW 5.4 0.0 0.0
00:03 4.5 -0.5 70 1016.0 5.4 SW 5.4 0.0 0.0
00:04 4.5 -0.5 70 1015.7 5.4 SW 5.4 0.0 0.0
00:05 4.5 -0.5 70 1015.9 5.4 SW 5.4 0.0 0.0
00:06 4.5 -0.5 70 1016.0 5.4 SW 5.4 0.0 0.0
00:07 4.5 -0.5 70 1016.2 5.4 SE 5.4 0.0 0.0
00:08 4.5 -0.5 70 1015.9 4.5 SW 5.4 0.0 0.0
00:09 4.5 -0.5 70 1016.0 3.1 SSE 5.4 0.0 0.0
00:10 4.5 -0.5 70 1015.9 5.4 S 5.4 0.0 0.0
00:11 4.5 -0.5 70 1015.8 4.5 S 5.4 0.0 0.0
00:12 4.5 -0.5 70 1016.0 4.5 S 5.4 0.0 0.0
00:13 4.5 -0.5 70 1015.8 3.8 SE 5.4 0.0 0.0
00:14 4.5 -0.5 70 1015.8 4.5 SE 5.4 0.0 0.0
00:15 4.5 -0.5 70 1015.9 5.4 SSE 6.9 0.0 0.0
00:16 4.5 -0.5 70 1015.8 6.0 S 6.9 0.0 0.0
00:17 4.5 -0.5 70 1015.9 5.4 SE 6.9 0.0 0.0
00:19 4.5 -0.5 70 1015.4 6.0 SE 6.9 0.0 0.0
00:20 4.5 -0.5 70 1015.8 5.4 SE 6.9 0.0 0.0
00:21 4.5 -0.5 70 1015.7 5.4 SE 6.9 0.0 0.0
00:22 4.5 -0.5 70 1015.6 4.5 SW 6.9 0.0 0.0
00:23 4.5 -0.5 70 1015.6 5.4 SE 6.9 0.0 0.0
00:24 4.4 -0.6 70 1015.5 6.0 SE 6.9 0.0 0.0
00:25 4.4 -0.6 70 1015.5 6.0 SE 6.9 0.0 0.0
00:26 4.4 -0.6 70 1015.8 6.9 S 7.6 0.0 0.0
00:27 4.4 -0.6 70 1015.7 5.4 SSE 7.6 0.0 0.0
00:28 4.4 -0.6 70 1015.7 5.4 SE 7.6 0.0 0.0
00:29 4.4 -0.6 70 1015.5 5.4 S 7.6 0.0 0.0
00:30 4.4 -0.6 70 1015.8 6.0 SE 7.6 0.0 0.0
00:31 4.4 -0.6 70 1015.7 5.4 S 7.6 0.0 0.0
00:32 4.4 -0.6 70 1015.5 5.4 SE 7.6 0.0 0.0
00:33 4.4 -0.6 70 1015.4 5.4 SE 7.6 0.0 0.0
00:34 4.4 -0.6 70 1015.7 6.0 S 7.6 0.0 0.0
00:35 4.4 -0.6 70 1015.6 6.0 SSE 7.6 0.0 0.0
00:36 4.4 -0.6 70 1015.6 6.9 S 6.9 0.0 0.0
00:38 4.4 -0.6 70 1015.5 5.4 ESE 6.9 0.0 0.0
00:39 4.4 -0.6 70 1015.5 6.0 SE 6.9 0.0 0.0
00:40 4.4 -0.6 70 1015.3 6.0 SE 6.9 0.0 0.0
00:41 4.4 -0.6 70 1015.5 6.0 SE 6.9 0.0 0.0
00:42 4.4 -0.4 71 1015.7 5.4 S 6.9 0.0 0.0
00:43 4.4 -0.4 71 1015.7 4.5 SE 6.9 0.0 0.0
00:44 4.4 -0.4 71 1015.7 4.5 SE 6.9 0.0 0.0
00:45 4.4 -0.4 71 1015.6 5.4 S 6.9 0.0 0.0
00:46 4.4 -0.4 71 1015.7 6.0 S 6.9 0.0 0.0
00:47 4.4 -0.4 71 1015.6 6.9 SE 6.9 0.0 0.0
00:48 4.4 -0.4 71 1015.6 6.9 SSE 6.9 0.0 0.0
00:49 4.4 -0.4 71 1015.6 6.0 S 6.9 0.0 0.0
00:50 4.4 -0.4 71 1015.5 6.0 S 6.9 0.0 0.0
00:51 4.4 -0.4 71 1015.5 6.0 SE 6.9 0.0 0.0
00:52 4.4 -0.4 71 1015.7 5.4 S 6.9 0.0 0.0
00:53 4.4 -0.4 71 1015.6 6.9 SSE 6.9 0.0 0.0
00:54 4.4 -0.4 71 1015.6 5.4 S 6.9 0.0 0.0
00:55 4.4 -0.4 71 1015.6 6.0 SE 6.9 0.0 0.0
00:57 4.4 -0.4 71 1015.6 5.4 SE 6.9 0.0 0.0
00:58 4.4 -0.4 71 1015.7 6.0 S 6.9 0.0 0.0
00:59 4.4 -0.4 71 1015.5 6.0 SW 6.9 0.0 0.0
01:00 4.4 -0.4 71 1015.5 6.0 SW 6.9 0.0 0.0
01:01 4.4 -0.4 71 1015.5 6.0 SW 6.9 0.0 0.0
01:02 4.4 -0.4 71 1015.8 6.0 SW 6.9 0.0 0.0
01:03 4.4 -0.4 71 1015.6 6.0 SW 6.9 0.0 0.0
01:04 4.4 -0.4 71 1015.6 6.0 SW 6.0 0.0 0.0
01:05 4.4 -0.4 71 1015.6 6.0 SW 6.0 0.0 0.0
01:06 4.4 -0.4 71 1015.8 6.0 SW 6.0 0.0 0.0
01:07 4.4 -0.4 71 1015.4 6.9 SE 6.9 0.0 0.0
01:08 4.4 -0.4 71 1015.5 6.0 SE 6.9 0.0 0.0
01:09 4.4 -0.4 71 1015.8 6.9 S 6.9 0.0 0.0
01:10 4.4 -0.4 71 1015.5 6.0 SE 6.9 0.0 0.0
01:11 4.4 -0.4 71 1015.6 5.4 S 6.9 0.0 0.0
01:12 4.4 -0.4 71 1015.7 6.0 S 6.9 0.0 0.0
01:13 4.4 -0.4 71 1015.6 6.9 S 6.9 0.0 0.0
01:14 4.4 -0.4 71 1015.6 7.6 S 7.6 0.0 0.0
01:16 4.5 -0.3 71 1015.5 7.6 SE 7.6 0.0 0.0
01:17 4.5 -0.3 71 1015.7 6.9 SE 7.6 0.0 0.0
01:18 4.5 -0.3 71 1015.6 6.9 S 7.6 0.0 0.0
01:19 4.5 -0.3 71 1015.5 6.0 S 7.6 0.0 0.0
01:20 4.5 -0.3 71 1015.7 6.0 S 7.6 0.0 0.0
01:21 4.5 -0.3 71 1015.7 6.9 E 7.6 0.0 0.0
01:22 4.5 -0.3 71 1015.8 5.4 S 7.6 0.0 0.0
01:23 4.5 -0.3 71 1015.7 6.0 SE 7.6 0.0 0.0
01:24 4.5 -0.3 71 1015.7 5.4 S 7.6 0.0 0.0
01:25 4.5 -0.3 71 1015.8 6.0 SSE 7.6 0.0 0.0
01:26 4.5 -0.3 71 1015.5 7.6 S 7.6 0.0 0.0
01:27 4.5 -0.3 71 1015.4 6.9 S 7.6 0.0 0.0
01:28 4.5 -0.3 71 1015.6 6.9 S 7.6 0.0 0.0
01:29 4.5 -0.3 71 1015.5 6.9 S 7.6 0.0 0.0
01:30 4.5 -0.3 71 1015.6 7.6 SE 7.6 0.0 0.0
01:31 4.6 -0.2 71 1015.4 6.0 S 7.6 0.0 0.0
01:32 4.6 -0.2 71 1015.6 6.0 S 7.6 0.0 0.0
01:33 4.6 -0.2 71 1015.7 6.0 S 7.6 0.0 0.0
01:35 4.6 -0.2 71 1015.8 6.0 S 7.6 0.0 0.0
01:36 4.6 -0.2 71 1015.8 6.0 S 7.6 0.0 0.0
01:37 4.6 -0.2 71 1015.6 6.9 S 7.6 0.0 0.0
01:38 4.7 -0.1 71 1015.8 6.9 SE 7.6 0.0 0.0
01:39 4.7 -0.1 71 1015.8 6.9 S 7.6 0.0 0.0
01:40 4.7 -0.1 71 1015.8 6.9 S 6.9 0.0 0.0
01:41 4.7 -0.1 71 1015.5 5.4 S 6.9 0.0 0.0
01:42 4.7 -0.1 71 1015.4 6.0 S 6.9 0.0 0.0
01:43 4.7 -0.1 71 1015.6 5.4 S 6.9 0.0 0.0
01:44 4.7 -0.1 71 1015.5 6.9 S 6.9 0.0 0.0
01:45 4.7 -0.1 71 1015.6 6.9 S 6.9 0.0 0.0
01:46 4.7 -0.1 71 1015.6 6.9 S 6.9 0.0 0.0
01:47 4.7 -0.1 71 1015.5 6.9 S 6.9 0.0 0.0
01:48 4.7 -0.1 71 1015.4 6.9 S 6.9 0.0 0.0
01:49 4.7 -0.1 71 1015.5 6.9 S 6.9 0.0 0.0
01:50 4.7 -0.1 71 1015.6 6.9 SW 6.9 0.0 0.0
01:51 4.8 0.0 71 1015.5 5.4 S 6.9 0.0 0.0
01:52 4.8 0.0 71 1015.5 5.4 S 6.9 0.0 0.0
01:53 4.8 0.0 71 1015.6 6.0 S 6.9 0.0 0.0
01:54 4.8 0.0 71 1015.6 6.0 SE 6.9 0.0 0.0
01:56 4.8 0.0 71 1015.4 5.4 S 7.6 0.0 0.0
01:57 4.8 0.0 71 1015.4 8.3 S 8.3 0.0 0.0
01:58 4.8 0.2 72 1015.7 8.3 S 8.3 0.0 0.0
01:59 4.8 0.2 72 1015.5 6.9 SW 8.3 0.0 0.0
02:00 4.8 0.2 72 1015.7 6.0 S 8.3 0.0 0.0
02:01 4.8 0.2 72 1015.7 6.0 S 8.3 0.0 0.0
02:02 4.8 0.2 72 1015.6 7.6 SE 8.3 0.0 0.0
02:03 4.9 0.3 72 1015.7 6.9 SW 8.3 0.0 0.0
02:04 4.9 0.3 72 1015.7 6.9 SW 8.3 0.0 0.0
02:05 4.9 0.3 72 1015.6 5.4 SW 8.3 0.0 0.0
02:06 4.9 0.3 72 1015.7 7.6 S 8.3 0.0 0.0
02:07 4.9 0.3 72 1015.9 7.6 S 8.3 0.0 0.0
02:08 4.9 0.3 72 1015.5 6.0 S 8.3 0.0 0.0
02:09 4.9 0.3 72 1015.6 6.0 S 8.3 0.0 0.0
02:10 4.9 0.3 72 1015.8 6.0 S 7.6 0.0 0.0
02:11 4.9 0.3 72 1015.7 6.9 S 7.6 0.0 0.0
02:12 4.9 0.3 72 1015.8 5.4 S 7.6 0.0 0.0
02:13 4.9 0.3 72 1015.7 5.4 SE 7.6 0.0 0.0
02:15 4.9 0.3 72 1015.7 6.0 S 7.6 0.0 0.0
02:16 4.9 0.3 72 1015.8 6.0 S 7.6 0.0 0.0
02:17 4.9 0.3 72 1015.6 6.0 S 6.9 0.0 0.0
02:18 4.9 0.3 72 1015.7 6.9 S 6.9 0.0 0.0
02:19 4.9 0.3 72 1015.6 6.9 S 6.9 0.0 0.0
02:20 4.9 0.3 72 1015.7 8.3 S 8.3 0.0 0.0
02:21 4.9 0.3 72 1015.7 8.3 S 8.3 0.0 0.0
02:22 5.0 0.4 72 1015.7 6.9 S 8.3 0.0 0.0
02:23 5.0 0.4 72 1015.8 6.0 S 8.3 0.0 0.0
02:24 5.0 0.4 72 1015.6 6.0 SSE 8.3 0.0 0.0
02:25 5.0 0.4 72 1015.7 6.0 SE 8.3 0.0 0.0
02:26 5.0 0.4 72 1015.7 6.0 SE 8.3 0.0 0.0
02:27 5.0 0.4 72 1015.8 7.6 SSE 8.3 0.0 0.0
02:28 5.0 0.4 72 1015.9 6.9 SSE 8.3 0.0 0.0
02:29 5.0 0.4 72 1015.7 5.4 SE 8.3 0.0 0.0
02:30 5.0 0.4 72 1015.7 7.6 S 8.3 0.0 0.0
02:31 5.0 0.4 72 1015.5 5.4 S 8.3 0.0 0.0
02:32 5.0 0.4 72 1015.8 6.9 S 7.6 0.0 0.0
02:33 5.0 0.4 72 1015.5 6.9 S 7.6 0.0 0.0
02:34 5.1 0.5 72 1015.6 6.0 S 7.6 0.0 0.0
02:36 5.1 0.5 72 1015.5 7.6 SE 9.2 0.0 0.0
02:37 5.1 0.5 72 1015.3 6.0 S 9.2 0.0 0.0
02:38 5.1 0.5 72 1015.4 6.9 SE 9.2 0.0 0.0
02:39 5.1 0.5 72 1015.3 6.0 SW 9.2 0.0 0.0
02:40 5.1 0.5 72 1015.3 6.0 SW 9.2 0.0 0.0
02:41 5.2 0.6 72 1015.5 6.0 S 9.2 0.0 0.0
02:42 5.2 0.6 72 1015.3 6.0 SW 9.2 0.0 0.0
02:43 5.2 0.6 72 1015.3 6.0 S 9.2 0.0 0.0
02:44 5.2 0.6 72 1015.4 6.0 S 9.2 0.0 0.0
02:45 5.2 0.6 72 1015.3 6.9 S 9.2 0.0 0.0
02:46 5.2 0.6 72 1015.4 6.0 S 9.2 0.0 0.0
02:47 5.2 0.6 72 1015.3 6.0 S 6.9 0.0 0.0
02:48 5.2 0.6 72 1015.4 6.0 S 6.9 0.0 0.0
02:49 5.2 0.6 72 1015.1 6.9 S 6.9 0.0 0.0
02:50 5.2 0.8 73 1015.0 6.9 S 6.9 0.0 0.0
02:51 5.3 0.9 73 1015.3 5.4 S 6.9 0.0 0.0
02:52 5.3 0.9 73 1015.1 6.0 S 6.9 0.0 0.0
02:53 5.3 0.9 73 1015.1 6.9 S 6.9 0.0 0.0
02:55 5.3 0.9 73 1015.3 7.6 SW 9.2 0.0 0.0
02:56 5.3 0.9 73 1014.9 5.4 S 9.2 0.0 0.0
02:57 5.3 0.9 73 1015.3 6.9 S 9.2 0.0 0.0
02:58 5.3 0.9 73 1015.3 6.9 S 9.2 0.0 0.0
02:59 5.3 0.9 73 1015.1 6.0 S 9.2 0.0 0.0
03:00 5.3 0.9 73 1015.1 6.0 S 9.2 0.0 0.0
03:01 5.3 0.9 73 1015.1 6.0 S 9.2 0.0 0.0
03:02 5.3 0.9 73 1015.3 6.0 S 9.2 0.0 0.0
03:03 5.3 0.9 73 1015.3 6.0 S 9.2 0.0 0.0
03:04 5.3 0.9 73 1015.2 6.0 S 9.2 0.0 0.0
03:05 5.3 0.9 73 1015.1 6.0 S 9.2 0.0 0.0
03:06 5.3 0.9 73 1015.1 6.0 S 7.6 0.0 0.0
03:07 5.3 0.9 73 1015.1 6.0 S 6.9 0.0 0.0
03:08 5.4 0.8 72 1015.1 5.4 S 6.9 0.0 0.0
03:09 5.4 0.8 72 1015.1 6.9 S 6.9 0.0 0.0
03:10 5.5 0.9 72 1015.0 7.6 S 7.6 0.0 0.0
03:11 5.5 0.9 72 1014.8 7.6 S 7.6 0.0 0.0
03:12 5.5 0.9 72 1015.0 6.9 S 7.6 0.0 0.0
03:14 5.5 0.9 72 1015.0 7.6 S 7.6 0.0 0.0
03:15 5.5 0.9 72 1015.2 6.9 S 7.6 0.0 0.0
03:16 5.6 1.0 72 1015.0 7.6 S 7.6 0.0 0.0
03:17 5.6 1.0 72 1015.0 6.9 S 7.6 0.0 0.0
03:18 5.6 1.0 72 1015.0 6.9 S 7.6 0.0 0.0
03:19 5.6 1.0 72 1015.2 6.0 SW 7.6 0.0 0.0
03:20 5.6 1.0 72 1015.2 6.0 SW 7.6 0.0 0.0
03:21 5.6 1.0 72 1015.1 6.0 S 7.6 0.0 0.0
03:22 5.7 1.1 72 1014.9 5.4 SW 7.6 0.0 0.0
03:23 5.7 1.1 72 1015.0 6.0 S 7.6 0.0 0.0
03:24 5.7 1.1 72 1015.0 6.0 SE 7.6 0.0 0.0
03:25 5.7 1.1 72 1015.0 6.9 S 7.6 0.0 0.0
03:26 5.7 1.1 72 1014.9 6.0 S 7.6 0.0 0.0
03:27 5.7 1.1 72 1014.9 7.6 S 7.6 0.0 0.0
03:28 5.8 1.1 72 1015.0 5.4 S 7.6 0.0 0.0
03:29 5.8 1.1 72 1014.8 7.6 S 7.6 0.0 0.0
03:30 5.8 1.1 72 1014.7 7.6 SSW 7.6 0.0 0.0
03:31 5.8 1.1 72 1014.7 7.6 S 7.6 0.0 0.0
03:33 5.8 1.1 72 1014.9 7.6 S 7.6 0.0 0.0
03:34 5.8 1.1 72 1014.8 6.0 S 7.6 0.0 0.0
03:35 5.9 1.2 72 1015.1 7.6 S 7.6 0.0 0.0
03:36 5.9 1.2 72 1014.7 7.6 S 7.6 0.0 0.0
03:37 5.9 1.2 72 1014.9 6.0 S 7.6 0.0 0.0
03:38 5.9 1.2 72 1014.8 7.6 S 7.6 0.0 0.0
03:39 5.9 1.2 72 1014.8 7.6 S 7.6 0.0 0.0
03:40 5.9 1.2 72 1014.8 6.9 S 7.6 0.0 0.0
03:41 5.9 1.2 72 1015.0 6.9 S 7.6 0.0 0.0
03:42 6.0 1.3 72 1014.7 8.3 SE 8.3 0.0 0.0
03:43 6.0 1.3 72 1014.7 7.6 SW 8.3 0.0 0.0
03:44 6.0 1.3 72 1014.6 7.6 NE 8.3 0.0 0.0
03:45 6.0 1.3 72 1014.7 6.9 SE 8.3 0.0 0.0
03:47 6.0 1.3 72 1014.6 9.2 S 9.8 0.0 0.0
03:48 6.0 1.3 72 1014.6 9.8 S 9.8 0.0 0.0
03:49 6.1 1.4 72 1014.7 9.2 SE 9.8 0.0 0.0
03:50 6.0 1.5 73 1014.7 9.8 S 9.8 0.0 0.0
03:51 6.1 1.6 73 1014.4 8.3 S 9.8 0.0 0.0
03:52 6.1 1.6 73 1014.4 8.3 S 9.8 0.0 0.0
03:53 6.1 1.6 73 1014.4 8.3 S 9.8 0.0 0.0
03:54 6.1 1.6 73 1014.4 9.8 S 9.8 0.0 0.0
03:55 6.1 1.6 73 1014.5 8.3 SW 9.8 0.0 0.0
03:56 6.1 1.6 73 1014.4 10.7 S 10.7 0.0 0.0
03:57 6.2 1.7 73 1014.2 10.7 S 10.7 0.0 0.0
03:58 6.2 1.7 73 1014.6 9.8 SE 10.7 0.0 0.0
03:59 6.2 1.7 73 1014.4 9.8 SSW 10.7 0.0 0.0
04:01 6.2 1.7 73 1014.4 6.9 SW 10.7 0.0 0.0
04:02 6.3 1.8 73 1014.5 9.2 SE 10.7 0.0 0.0
04:03 6.3 1.8 73 1014.3 8.3 S 11.4 0.0 0.0
04:04 6.3 1.8 73 1014.3 9.2 S 11.4 0.0 0.0
04:05 6.3 1.8 73 1014.4 9.8 S 11.4 0.0 0.0
04:06 6.3 2.0 74 1014.1 9.8 S 11.4 0.0 0.0
04:07 6.3 2.0 74 1014.2 10.7 SW 11.4 0.0 0.0
04:08 6.3 2.0 74 1014.4 9.8 S 11.4 0.0 0.0
04:09 6.3 2.0 74 1014.3 10.7 S 11.4 0.0 0.0
04:10 6.4 2.1 74 1014.2 9.2 S 11.4 0.0 0.0
04:11 6.4 2.1 74 1014.3 9.8 SW 11.4 0.0 0.0
04:12 6.4 2.1 74 1014.0 8.3 S 11.4 0.0 0.0
04:13 6.4 2.1 74 1014.0 9.8 S 10.7 0.0 0.0
04:15 6.4 2.1 74 1014.2 9.2 S 10.7 0.0 0.0
04:16 6.4 2.1 74 1014.1 10.7 S 10.7 0.0 0.0
04:17 6.4 2.1 74 1014.2 11.4 S 11.4 0.0 0.0
04:18 6.5 2.2 74 1014.2 10.7 S 11.4 0.0 0.0
04:19 6.5 2.2 74 1014.2 9.8 S 13.0 0.0 0.0
04:20 6.5 2.2 74 1014.2 9.8 S 13.0 0.0 0.0
04:21 6.5 2.2 74 1014.1 8.3 S 13.0 0.0 0.0
04:22 6.5 2.2 74 1014.3 9.8 S 13.0 0.0 0.0
04:23 6.5 2.2 74 1014.5 8.3 SW 13.0 0.0 0.0
04:24 6.5 2.2 74 1014.3 14.5 S 14.5 0.0 0.0
04:25 6.6 2.5 75 1014.3 12.1 S 14.5 0.0 0.0
04:26 6.6 2.5 75 1014.3 8.3 S 14.5 0.0 0.0
04:27 6.6 2.5 75 1014.2 9.8 S 14.5 0.0 0.0
04:29 6.6 2.5 75 1014.3 8.3 S 14.5 0.0 0.0
04:30 6.6 2.5 75 1014.1 10.7 S 14.5 0.0 0.0
04:31 6.6 2.5 75 1014.6 8.3 S 14.5 0.0 0.0
04:32 6.7 2.6 75 1014.1 9.2 W 14.5 0.0 0.0
04:33 6.7 2.6 75 1014.1 8.3 SW 14.5 0.0 0.0
04:34 6.7 2.6 75 1014.1 8.3 SW 14.5 0.0 0.0
04:35 6.7 2.6 75 1014.2 9.2 S 12.1 0.0 0.0
04:36 6.7 2.6 75 1014.3 9.2 SSE 10.7 0.0 0.0
04:37 6.7 2.6 75 1014.4 8.3 S 10.7 0.0 0.0
04:38 6.7 2.6 75 1014.4 10.7 S 10.7 0.0 0.0
04:39 6.7 2.6 75 1014.3 13.0 S 13.0 0.0 0.0
04:40 6.7 2.6 75 1014.3 13.0 S 13.0 0.0 0.0
04:41 6.7 2.6 75 1014.4 10.7 S 13.0 0.0 0.0
04:42 6.7 2.6 75 1014.1 13.0 SE 13.0 0.0 0.0
04:44 6.7 2.6 75 1014.2 7.6 SSW 13.0 0.0 0.0
04:45 6.7 2.6 75 1014.3 9.2 S 13.0 0.0 0.0
04:46 6.7 2.8 76 1014.2 9.2 S 13.0 0.0 0.0
04:47 6.7 2.8 76 1014.3 9.8 S 13.0 0.0 0.0
04:48 6.7 2.8 76 1014.3 9.8 S 13.0 0.0 0.0
04:49 6.7 2.8 76 1014.3 10.7 S 13.0 0.0 0.0
04:50 6.7 2.8 76 1014.2 10.7 SSW 13.0 0.0 0.0
04:51 6.7 2.8 76 1014.1 11.4 S 13.0 0.0 0.0
04:52 6.7 2.8 76 1014.2 11.4 S 13.0 0.0 0.0
04:53 6.7 2.8 76 1014.3 9.2 SW 12.1 0.0 0.0
04:54 6.7 2.8 76 1014.2 9.2 S 12.1 0.0 0.0
04:55 6.7 3.0 77 1014.2 8.3 S 12.1 0.8 0.1
04:56 6.7 3.0 77 1014.3 7.6 S 12.1 0.8 0.1
04:58 6.6 2.9 77 1014.2 8.3 S 11.4 0.8 0.1
04:59 6.6 2.9 77 1014.2 6.0 S 11.4 0.8 0.1
05:00 6.6 2.9 77 1014.1 6.0 S 11.4 0.0 0.1
05:01 6.6 2.9 77 1014.2 6.0 S 11.4 0.0 0.1
05:02 6.6 2.9 77 1014.2 6.0 S 11.4 0.0 0.1
05:03 6.6 2.9 77 1014.3 6.0 S 10.7 0.0 0.1
05:04 6.6 2.9 77 1014.1 6.0 S 10.7 0.0 0.1
05:05 6.6 2.9 77 1014.2 6.0 S 9.2 0.0 0.1
05:06 6.6 2.9 77 1014.2 6.0 S 9.2 0.0 0.1
05:07 6.7 3.1 78 1014.1 11.4 S 11.4 1.5 0.2
05:08 6.7 3.3 79 1014.0 12.1 S 12.1 1.5 0.2
05:09 6.7 3.3 79 1014.4 11.4 S 12.1 1.5 0.2
05:10 6.7 3.3 79 1014.0 9.8 S 12.1 1.5 0.3
05:12 6.7 3.3 79 1014.0 12.1 SW 12.1 0.8 0.3
05:13 6.7 3.5 80 1013.9 10.7 SSE 12.1 0.8 0.3
05:14 6.7 3.5 80 1014.0 9.8 S 12.1 0.8 0.3
05:15 6.7 3.5 80 1014.0 9.8 S 12.1 0.8 0.3
05:16 6.7 3.5 80 1014.0 9.8 S 12.1 0.0 0.3
05:17 6.7 3.5 80 1013.9 9.2 S 12.1 0.0 0.3
05:18 6.7 3.5 80 1013.8 10.7 SW 12.1 0.8 0.3
05:19 6.7 3.5 80 1013.8 8.3 SE 12.1 0.8 0.3
05:20 6.7 3.5 80 1013.9 9.2 S 12.1 1.5 0.4
05:21 6.7 3.5 80 1013.8 11.4 S 12.1 1.5 0.4
05:22 6.7 3.5 80 1013.7 11.4 SE 12.1 1.5 0.4
05:23 6.7 3.5 80 1013.9 9.8 SW 11.4 0.8 0.4
05:24 6.6 3.4 80 1013.9 11.4 S 11.4 0.8 0.4
05:26 6.6 3.4 80 1013.9 7.6 S 11.4 0.0 0.4
05:27 6.6 3.4 80 1013.9 7.6 S 11.4 0.8 0.4
05:28 6.6 3.4 80 1013.9 9.2 SSE 11.4 0.8 0.4
05:29 6.6 3.4 80 1013.9 9.8 SE 11.4 0.8 0.4
05:30 6.6 3.4 80 1014.0 8.3 SSE 11.4 0.8 0.4
05:31 6.6 3.4 80 1013.9 7.6 S 11.4 0.8 0.4
05:32 6.6 3.4 80 1014.0 7.6 S 11.4 0.8 0.5
05:33 6.6 3.4 80 1014.0 7.6 S 11.4 0.8 0.5
05:34 6.6 3.4 80 1013.9 6.0 S 11.4 0.8 0.5
05:35 6.6 3.4 80 1013.9 7.6 S 9.8 0.8 0.5
05:36 6.6 3.4 80 1014.0 6.0 S 9.8 0.8 0.5
05:37 6.6 3.4 80 1014.1 6.0 S 9.8 0.0 0.5
05:38 6.6 3.4 80 1014.1 5.4 S 9.8 0.0 0.5
05:40 6.6 3.4 80 1013.9 8.3 S 8.3 0.0 0.5
05:41 6.6 3.4 80 1014.0 8.3 S 8.3 0.0 0.5
05:42 6.6 3.4 80 1014.1 8.3 S 8.3 0.0 0.5
05:43 6.6 3.4 80 1014.0 6.0 SSE 8.3 0.0 0.5
05:44 6.6 3.4 80 1014.0 6.0 SSE 8.3 0.0 0.5
05:45 6.6 3.4 80 1014.4 5.4 SE 8.3 0.0 0.5
05:46 6.6 3.6 81 1014.3 5.4 S 8.3 0.0 0.5
05:47 6.6 3.6 81 1014.2 3.8 SE 8.3 0.0 0.5
05:48 6.6 3.6 81 1014.3 6.9 S 8.3 0.0 0.5
05:49 6.6 3.6 81 1014.2 6.0 SSE 8.3 0.8 0.6
05:50 6.6 3.6 81 1014.5 6.9 S 8.3 0.8 0.6
05:51 6.6 3.6 81 1014.5 6.9 S 8.3 0.8 0.6
05:52 6.6 3.6 81 1014.6 6.0 SW 8.3 0.8 0.6
05:54 6.6 3.6 81 1014.8 3.1 S 6.9 0.0 0.6
05:55 6.6 3.6 81 1014.6 3.1 S 6.9 0.0 0.6
05:56 6.6 3.6 81 1014.7 2.2 SE 6.9 0.0 0.6
05:57 6.6 3.6 81 1014.6 2.2 SE 6.9 0.8 0.6
05:58 6.6 3.6 81 1014.5 2.2 SE 6.9 0.8 0.6
05:59 6.6 3.6 81 1014.5 3.1 S 6.9 0.8 0.6
06:00 6.6 3.6 81 1014.7 3.1 S 6.9 0.8 0.6
06:01 6.6 3.6 81 1014.6 3.1 S 6.9 0.8 0.6
06:02 6.6 3.6 81 1014.6 3.1 S 6.0 0.8 0.8
06:03 6.6 3.6 81 1014.6 3.1 SE 3.8 1.5 0.8
06:04 6.6 3.6 81 1014.8 3.1 S 3.1 1.5 0.8
06:05 6.6 3.6 81 1014.6 3.1 S 3.1 1.5 0.8
06:06 6.5 3.5 81 1014.6 4.5 S 4.5 1.5 0.8
06:08 6.5 3.5 81 1014.7 3.1 SE 4.5 1.5 0.9
06:09 6.5 3.5 81 1014.6 3.1 SE 4.5 1.5 0.9
06:10 6.5 3.5 81 1015.1 3.1 SE 4.5 1.5 0.9
06:11 6.5 3.5 81 1014.9 3.1 SE 4.5 1.5 0.9
06:12 6.5 3.5 81 1014.9 3.1 SE 4.5 0.8 0.9
06:13 6.5 3.5 81 1014.9 3.1 SE 4.5 0.0 0.9
06:14 6.5 3.5 81 1014.9 3.1 S 4.5 1.5 1.0
06:15 6.5 3.5 81 1015.2 3.1 SE 4.5 2.3 1.1
06:16 6.5 3.5 81 1014.9 3.8 SE 4.5 3.0 1.1
06:17 6.5 3.5 81 1015.1 3.8 SE 4.5 3.0 1.1
06:18 6.5 3.5 81 1014.9 4.5 SSE 4.5 3.0 1.3
06:19 6.5 3.5 81 1015.0 5.4 S 5.4 3.0 1.3
06:20 6.5 3.5 81 1014.9 5.4 S 5.4 2.3 1.3
06:22 6.5 3.5 81 1014.9 6.0 SW 6.0 3.0 1.4
06:23 6.5 3.5 81 1014.7 6.9 S 6.9 3.8 1.5
06:24 6.5 3.5 81 1014.7 6.9 S 6.9 3.0 1.5
06:25 6.5 3.5 81 1014.8 7.6 S 7.6 3.0 1.6
06:26 6.5 3.5 81 1014.6 7.6 S 7.6 3.0 1.6
06:27 6.5 3.5 81 1014.6 7.6 SSE 7.6 3.0 1.6
06:28 6.5 3.5 81 1014.6 6.9 S 7.6 3.0 1.7
06:29 6.5 3.5 81 1014.8 6.9 S 7.6 2.3 1.7
06:30 6.5 3.7 82 1014.7 8.3 S 8.3 2.3 1.8
06:31 6.5 3.7 82 1014.7 6.0 S 8.3 2.3 1.8
06:32 6.5 3.7 82 1014.6 6.9 S 8.3 1.5 1.8
06:33 6.5 3.7 82 1014.7 7.6 S 8.3 1.5 1.8
06:34 6.5 3.7 82 1014.4 11.4 S 11.4 2.3 1.9
06:36 6.5 3.7 82 1014.4 10.7 S 11.4 1.5 2.0
06:37 6.5 3.7 82 1014.2 10.7 S 11.4 2.3 2.0
06:38 6.5 3.7 82 1014.1 12.1 SW 12.1 1.5 2.1
06:39 6.5 3.7 82 1014.0 12.1 SW 12.1 2.3 2.1
06:40 6.5 3.7 82 1014.0 12.1 SW 12.1 3.0 2.1
06:41 6.5 3.7 82 1014.1 12.1 SW 12.1 3.0 2.1
06:42 6.5 3.7 82 1013.9 11.4 S 13.6 3.0 2.3
06:43 6.5 3.7 82 1013.8 11.4 S 13.6 3.8 2.3
06:44 6.5 3.7 82 1014.0 11.4 S 13.6 2.3 2.3
06:45 6.5 3.7 82 1013.7 13.6 SW 13.6 2.3 2.3
06:46 6.5 3.7 82 1013.5 11.4 SW 13.6 3.0 2.4
06:47 6.5 3.7 82 1013.7 14.5 SW 14.5 3.0 2.5
06:48 6.5 3.7 82 1013.4 14.5 SW 14.5 2.3 2.5
06:50 6.6 3.9 83 1013.1 13.6 SW 14.5 1.5 2.5
06:51 6.6 3.9 83 1013.3 14.5 SW 14.5 1.5 2.5
06:52 6.6 3.9 83 1013.2 15.9 SE 15.9 0.8 2.6
06:53 6.6 3.9 83 1013.1 13.0 S 15.9 1.5 2.6
06:54 6.6 3.9 83 1013.1 13.0 S 15.9 2.3 2.6
06:55 6.6 3.9 83 1013.2 17.4 W 17.4 3.0 2.7
06:56 6.6 3.9 83 1013.0 17.4 W 17.4 2.3 2.7
06:57 6.6 3.9 83 1013.2 21.3 S 21.3 3.0 2.8
06:58 6.6 3.9 83 1013.0 19.0 S 21.3 3.8 2.9
06:59 6.6 3.9 83 1013.2 19.7 S 21.3 3.8 3.0
07:00 6.6 3.9 83 1013.1 16.8 SW 21.3 3.8 3.0
07:01 6.6 3.9 83 1013.2 16.8 SW 21.3 3.8 3.0
07:02 6.6 3.9 83 1013.2 16.8 SW 21.3 3.0 3.0
07:04 6.6 3.9 83 1013.2 16.8 SW 21.3 0.8 3.0
07:05 6.6 4.1 84 1013.1 18.3 S 21.3 0.0 3.1
07:06 6.6 4.1 84 1013.0 15.9 S 21.3 1.5 3.1
07:07 6.7 4.2 84 1013.1 15.2 S 19.7 1.5 3.1
07:08 6.7 4.2 84 1013.1 15.2 S 19.7 1.5 3.1
07:09 6.7 4.2 84 1013.0 18.3 S 19.7 3.0 3.3
07:10 6.7 4.2 84 1013.0 15.9 S 18.3 3.0 3.3
07:11 6.7 4.2 84 1013.2 15.9 S 18.3 1.5 3.3
07:12 6.8 4.3 84 1013.0 19.7 S 19.7 3.0 3.4
07:13 6.8 4.3 84 1012.8 18.3 S 19.7 3.0 3.4
07:14 6.8 4.3 84 1012.6 19.0 S 19.7 1.5 3.4
07:15 6.8 4.3 84 1012.8 18.3 SW 19.7 1.5 3.4
07:16 6.8 4.5 85 1012.8 18.3 SW 19.7 1.5 3.4
07:18 6.8 4.5 85 1012.6 19.0 S 19.7 0.0 3.4
07:19 6.8 4.5 85 1012.3 21.3 S 21.3 0.0 3.4
07:20 6.8 4.5 85 1012.2 25.9 S 25.9 0.0 3.4
07:21 6.8 4.5 85 1012.1 19.7 S 25.9 0.0 3.4
07:22 6.8 4.5 85 1012.2 22.1 S 25.9 0.0 3.4
07:23 6.8 4.5 85 1011.9 22.8 S 25.9 0.0 3.4
07:24 6.8 4.5 85 1011.9 24.4 S 25.9 0.0 3.4
07:25 6.8 4.5 85 1011.7 24.4 S 25.9 0.0 3.4
07:26 6.9 4.6 85 1011.8 21.3 S 25.9 0.0 3.4
07:27 6.9 4.6 85 1011.7 25.1 S 25.9 0.8 3.5
07:28 6.9 4.6 85 1011.8 25.1 S 25.9 0.8 3.5
07:29 6.9 4.7 86 1011.8 20.6 SW 25.9 0.8 3.5
07:30 6.9 4.7 86 1011.8 22.8 S 25.9 0.8 3.5
07:32 6.9 4.7 86 1012.2 19.7 S 25.1 0.0 3.5
07:33 6.9 4.7 86 1012.3 19.0 S 25.1 0.0 3.5
07:34 6.9 4.7 86 1012.3 21.3 SW 25.1 0.8 3.5
07:35 6.9 4.7 86 1012.4 17.4 S 25.1 0.8 3.5
07:36 6.9 4.7 86 1012.4 17.4 S 25.1 0.8 3.5
07:37 6.9 4.7 86 1012.4 17.4 S 25.1 1.5 3.6
07:38 6.9 4.7 86 1012.6 22.1 S 25.1 1.5 3.7
07:39 6.9 4.7 86 1012.3 22.1 SW 22.8 1.5 3.7
07:40 6.9 4.7 86 1012.4 22.8 S 22.8 1.5 3.7
07:41 6.9 4.7 86 1012.5 22.8 S 22.8 1.5 3.7
07:42 6.9 4.7 86 1012.4 20.6 SSE 22.8 1.5 3.7
07:43 6.9 4.7 86 1012.5 15.2 S 22.8 2.3 3.8
07:44 6.9 4.7 86 1012.4 19.0 SW 22.8 1.5 3.8
07:46 6.9 4.7 86 1012.7 14.5 S 22.8 2.3 3.8
07:47 6.8 4.6 86 1012.5 16.8 S 22.8 1.5 3.8
07:48 6.8 4.6 86 1012.9 15.9 SW 22.8 0.8 3.8
07:49 6.8 4.6 86 1012.9 15.9 S 22.8 0.8 3.8
07:50 6.8 4.6 86 1012.6 16.8 S 22.8 0.8 3.9
07:51 6.8 4.6 86 1012.8 13.0 SSE 20.6 0.8 3.9
07:52 6.8 4.6 86 1012.9 15.2 SW 20.6 0.8 3.9
07:53 6.8 4.6 86 1012.9 16.8 SSW 19.7 0.8 3.9
07:54 6.8 4.6 86 1012.7 12.1 S 19.7 0.8 3.9
07:55 6.7 4.7 87 1012.9 13.0 S 18.3 1.5 4.0
07:56 6.7 4.7 87 1012.8 13.6 SW 18.3 0.8 4.0
07:57 6.7 4.7 87 1012.7 13.6 S 18.3 0.8 4.0
07:58 6.7 4.7 87 1013.1 20.6 S 20.6 1.5 4.0
08:00 6.7 4.7 87 1013.0 15.2 SW 20.6 0.8 4.0
08:01 6.7 4.7 87 1013.0 15.2 SW 20.6 0.8 4.0
08:02 6.7 4.7 87 1013.0 15.2 SW 20.6 0.8 4.0
08:03 6.7 4.7 87 1012.9 15.2 SW 20.6 0.0 4.0
08:04 6.7 4.7 87 1012.9 15.2 SW 20.6 0.0 4.0
08:05 6.7 4.7 87 1013.0 15.2 SW 20.6 0.0 4.0
08:06 6.7 4.7 87 1013.1 15.2 SW 20.6 0.0 4.0
08:07 6.8 4.8 87 1013.1 16.8 S 20.6 1.5 4.2
08:08 6.8 4.8 87 1013.2 15.2 SSW 20.6 1.5 4.2
08:09 6.8 4.8 87 1013.3 14.5 S 20.6 1.5 4.2
08:10 6.8 4.8 87 1013.1 16.8 S 16.8 1.5 4.2
08:11 6.9 4.9 87 1013.2 16.8 S 16.8 1.5 4.2
08:12 6.9 4.9 87 1013.1 17.4 S 17.4 0.8 4.2
08:14 6.9 4.9 87 1013.2 17.4 S 17.4 0.8 4.2
08:15 7.0 5.0 87 1013.0 15.9 SW 17.4 1.5 4.3
08:16 7.0 5.0 87 1013.0 15.2 S 17.4 1.5 4.3
08:17 7.0 5.0 87 1013.2 15.2 S 17.4 0.8 4.3
08:18 7.1 5.1 87 1013.1 17.4 SW 17.4 0.8 4.3
08:19 7.1 5.1 87 1013.3 17.4 SE 17.4 1.5 4.3
08:20 7.1 5.1 87 1013.1 14.5 S 17.4 1.5 4.4
08:21 7.1 5.1 87 1013.1 13.0 SE 17.4 1.5 4.4
08:22 7.1 5.1 87 1012.7 16.8 S 17.4 1.5 4.5
08:23 7.1 5.1 87 1012.9 16.8 SW 17.4 2.3 4.5
08:24 7.1 5.1 87 1012.8 13.6 S 17.4 2.3 4.5
08:25 7.1 5.1 87 1012.7 13.6 S 17.4 1.5 4.5
08:26 7.2 5.2 87 1012.8 19.0 S 19.0 1.5 4.5
08:28 7.2 5.2 87 1012.9 20.6 SSW 22.8 1.5 4.6
08:29 7.2 5.3 88 1013.0 14.5 S 22.8 0.8 4.6
08:30 7.2 5.3 88 1012.8 13.6 S 22.8 0.8 4.6
08:31 7.2 5.3 88 1012.7 15.9 S 22.8 1.5 4.7
08:32 7.2 5.3 88 1012.7 15.9 S 22.8 0.8 4.7
08:33 7.2 5.3 88 1012.6 15.9 S 22.8 0.8 4.7
08:34 7.2 5.3 88 1012.7 13.0 S 22.8 0.8 4.7
08:35 7.2 5.3 88 1012.5 16.8 SW 22.8 0.8 4.7
08:36 7.2 5.3 88 1012.8 17.4 S 22.8 0.0 4.7
08:37 7.2 5.3 88 1012.6 17.4 SSE 22.8 0.0 4.7
08:38 7.2 5.3 88 1012.7 15.2 S 22.8 0.0 4.7
08:39 7.2 5.3 88 1012.7 19.0 S 19.0 0.0 4.7
08:40 7.2 5.3 88 1012.7 20.6 SE 20.6 0.0 4.7
08:42 7.2 5.3 88 1012.8 19.7 S 20.6 0.0 4.7
08:43 7.2 5.3 88 1012.8 19.0 SE 20.6 0.0 4.7
08:44 7.2 5.3 88 1012.4 19.0 S 20.6 0.0 4.7
08:45 7.2 5.3 88 1012.3 19.7 S 20.6 0.0 4.7
08:46 7.2 5.3 88 1012.5 17.4 S 20.6 0.0 4.7
08:47 7.2 5.3 88 1012.7 15.9 S 20.6 0.0 4.7
08:48 7.2 5.3 88 1012.5 21.3 S 21.3 0.0 4.7
08:49 7.2 5.3 88 1012.5 21.3 S 21.3 0.0 4.7
08:50 7.2 5.3 88 1012.3 16.8 S 23.5 0.0 4.7
08:51 7.2 5.3 88 1012.4 16.8 SE 23.5 0.0 4.7
08:52 7.2 5.3 88 1012.3 21.3 S 23.5 0.0 4.7
08:53 7.2 5.3 88 1012.2 17.4 S 23.5 0.0 4.7
08:54 7.2 5.3 88 1012.1 15.2 S 23.5 0.0 4.7
08:56 7.2 5.3 88 1012.3 18.3 S 23.5 0.0 4.7
08:57 7.2 5.3 88 1012.3 14.5 S 23.5 0.0 4.7
08:58 7.2 5.3 88 1012.1 16.8 SW 23.5 0.0 4.7
08:59 7.2 5.3 88 1012.0 14.5 S 23.5 0.0 4.7
09:00 7.2 5.3 88 1012.0 14.5 S 21.3 0.8 4.7
09:01 7.2 5.3 88 1012.0 14.5 S 21.3 0.8 4.7
09:02 7.2 5.3 88 1011.7 14.5 S 21.3 0.8 4.7
09:03 7.2 5.3 88 1011.6 14.5 S 20.6 0.8 4.7
09:04 7.2 5.3 88 1011.6 14.5 S 20.6 0.8 4.7
09:05 7.2 5.3 88 1011.6 14.5 S 20.6 0.0 4.7
09:06 7.2 5.3 88 1011.6 19.0 SSE 19.0 0.0 4.7
09:07 7.2 5.3 88 1011.7 15.2 S 19.0 0.0 4.7
09:08 7.2 5.3 88 1012.1 13.0 S 19.0 0.0 4.7
09:10 7.1 5.2 88 1012.1 14.5 W 19.0 0.0 4.7
09:11 7.2 5.3 88 1012.0 13.6 S 19.0 0.0 4.7
09:12 7.2 5.3 88 1012.0 13.0 SE 19.0 0.0 4.7
09:13 7.2 5.3 88 1011.7 15.9 S 19.0 0.0 4.7
09:14 7.2 5.3 88 1011.7 15.9 S 19.0 0.0 4.7
09:15 7.2 5.3 88 1011.7 18.3 SE 19.0 0.0 4.7
09:16 7.2 5.3 88 1011.8 16.8 S 19.0 0.0 4.7
09:17 7.2 5.3 88 1011.8 24.4 S 24.4 0.8 4.8
09:18 7.2 5.3 88 1011.8 14.5 SW 24.4 0.8 4.8
09:19 7.2 5.3 88 1011.9 15.9 S 24.4 0.8 4.8
09:20 7.2 5.3 88 1011.9 14.5 S 24.4 0.8 4.8
09:21 7.2 5.3 88 1012.2 13.6 SW 24.4 0.8 4.8
09:22 7.2 5.3 88 1012.2 19.7 S 24.4 0.0 4.8
09:24 7.3 5.4 88 1012.2 15.2 S 24.4 0.0 4.8
09:25 7.3 5.4 88 1012.2 14.5 SE 24.4 0.0 4.8
09:26 7.3 5.4 88 1012.1 15.2 S 24.4 0.0 4.8
09:27 7.3 5.4 88 1012.3 15.2 S 24.4 0.0 4.8
09:28 7.3 5.4 88 1012.3 15.2 S 19.7 0.0 4.8
09:29 7.4 5.5 88 1012.4 15.2 S 19.7 0.0 4.8
09:30 7.4 5.5 88 1012.2 14.5 S 19.7 0.0 4.8
09:31 7.4 5.5 88 1012.3 12.1 S 19.7 0.0 4.8
09:32 7.4 5.5 88 1012.4 17.4 S 19.7 0.0 4.8
09:33 7.4 5.5 88 1012.2 24.4 SE 24.4 0.0 4.8
09:34 7.4 5.5 88 1012.0 24.4 S 24.4 0.0 4.8
09:35 7.5 4.8 83 1012.4 23.5 S 24.4 0.0 4.8
09:36 7.5 4.8 83 1012.5 19.7 SE 24.4 0.0 4.8
09:38 7.6 4.9 83 1012.3 16.8 SW 24.4 0.0 4.8
09:39 7.6 4.9 83 1012.3 13.0 S 24.4 0.0 4.8
09:40 7.6 4.9 83 1012.3 20.6 SE 24.4 0.0 4.8
09:41 7.6 4.9 83 1012.4 20.6 S 24.4 0.0 4.8
09:42 7.6 4.9 83 1012.3 17.4 S 24.4 0.0 4.8
09:43 7.6 4.9 83 1011.9 22.8 S 24.4 0.0 4.8
09:44 7.6 4.9 83 1012.3 22.8 S 23.5 0.0 4.8
09:45 7.6 4.9 83 1012.2 24.4 S 24.4 0.0 4.8
09:46 7.7 5.0 83 1012.1 19.0 SSE 24.4 0.0 4.8
09:47 7.7 5.0 83 1012.3 19.0 S 24.4 0.0 4.8
09:48 7.7 5.0 83 1012.1 17.4 SW 24.4 0.0 4.8
09:49 7.7 5.0 83 1012.2 15.2 S 24.4 0.0 4.8
09:50 7.8 5.1 83 1012.3 13.0 SE 24.4 0.0 4.8
09:52 7.8 5.1 83 1012.2 17.4 S 24.4 0.0 4.8
09:53 7.8 5.1 83 1012.3 19.0 S 24.4 0.0 4.8
09:54 7.9 5.2 83 1012.4 21.3 S 24.4 0.0 4.8
09:55 7.9 5.2 83 1012.5 12.1 S 21.3 0.0 4.8
09:56 7.9 5.2 83 1012.5 12.1 S 21.3 0.0 4.8
09:57 7.9 5.2 83 1012.4 13.0 S 21.3 0.0 4.8
09:58 7.9 5.2 83 1012.3 13.6 SW 21.3 0.0 4.8
09:59 8.0 5.3 83 1012.4 17.4 S 21.3 0.0 4.8
10:00 8.0 5.3 83 1012.3 19.0 S 21.3 0.0 4.8
10:01 8.0 5.3 83 1012.4 19.0 S 21.3 0.0 4.8
10:02 8.0 5.3 83 1012.1 19.0 S 21.3 0.0 4.8
10:03 8.0 5.3 83 1012.2 19.0 S 21.3 0.0 4.8
10:04 8.0 5.3 83 1012.2 19.0 S 19.0 0.0 4.8
10:06 8.0 5.3 83 1012.4 19.0 S 19.0 0.0 4.8
10:07 8.1 5.4 83 1012.3 21.3 SW 21.3 0.0 4.8
10:08 8.1 5.4 83 1012.3 17.4 S 21.3 0.0 4.8
10:09 8.1 5.4 83 1012.3 22.1 S 22.1 0.0 4.8
10:10 8.1 5.4 83 1012.3 16.8 S 22.1 0.0 4.8
10:11 8.1 5.4 83 1012.2 15.2 E 22.1 0.0 4.8
10:12 8.1 5.4 83 1012.2 18.3 SE 22.1 0.0 4.8
10:13 8.1 5.4 83 1012.2 19.0 S 22.1 0.0 4.8
10:14 8.2 5.5 83 1012.4 19.0 S 22.1 0.0 4.8
10:15 8.2 5.5 83 1012.2 17.4 S 22.1 0.8 4.9
10:16 8.2 5.5 83 1012.3 15.9 SE 22.1 0.8 4.9
10:17 8.2 5.5 83 1012.2 21.3 S 22.1 0.8 4.9
10:18 8.2 5.5 83 1012.5 24.4 S 24.4 1.5 4.9
10:20 8.3 5.6 83 1012.2 17.4 S 24.4 0.8 4.9
10:21 8.3 5.8 84 1012.3 16.8 S 24.4 0.8 4.9
10:22 8.3 5.8 84 1012.3 16.8 SW 24.4 0.8 4.9
10:23 8.3 5.8 84 1012.2 21.3 S 24.4 0.8 5.0
10:24 8.3 5.8 84 1012.2 21.3 S 24.4 0.8 5.0
10:25 8.3 5.8 84 1012.2 21.3 S 24.4 0.8 5.0
10:26 8.3 5.8 84 1012.1 19.7 S 24.4 1.5 5.0
10:27 8.4 5.9 84 1012.3 18.3 S 24.4 1.5 5.0
10:28 8.4 5.9 84 1012.2 16.8 S 24.4 0.8 5.0
10:29 8.4 5.9 84 1012.1 15.2 S 21.3 0.8 5.0
10:30 8.4 5.9 84 1012.0 25.1 S 25.1 0.8 5.1
10:31 8.4 5.9 84 1012.1 20.6 S 25.1 0.8 5.1
10:32 8.4 5.9 84 1011.8 19.0 SW 25.1 0.8 5.1
10:34 8.4 5.9 84 1012.0 20.6 S 25.1 1.5 5.2
10:35 8.5 6.0 84 1011.8 19.0 S 25.1 1.5 5.2
10:36 8.5 6.0 84 1011.9 15.9 SW 25.1 0.8 5.2
10:37 8.5 6.0 84 1012.0 15.9 S 25.1 0.8 5.2
10:38 8.5 6.0 84 1011.8 15.9 S 25.1 0.8 5.2
10:39 8.5 6.0 84 1012.1 18.3 S 25.1 0.0 5.2
10:40 8.5 6.0 84 1012.2 15.2 S 25.1 0.0 5.2
10:41 8.5 6.0 84 1012.0 18.3 SSE 22.8 0.0 5.2
10:42 8.5 6.0 84 1012.0 15.9 SE 22.8 0.0 5.2
10:43 8.5 6.0 84 1011.8 19.0 S 22.8 0.8 5.2
10:44 8.5 6.0 84 1011.9 17.4 S 22.8 0.8 5.2
10:45 8.5 6.0 84 1012.1 19.0 SE 22.8 0.8 5.2
10:46 8.5 6.0 84 1012.1 22.1 S 22.1 1.5 5.3
10:47 8.6 6.1 84 1011.9 20.6 S 22.1 1.5 5.3
10:49 8.6 6.1 84 1011.9 22.1 SE 22.1 0.8 5.3
10:50 8.6 6.1 84 1012.0 22.1 S 22.1 0.8 5.3
10:51 8.6 6.1 84 1012.0 17.4 SSW 22.1 0.0 5.3
10:52 8.6 6.1 84 1012.0 15.9 S 22.1 0.0 5.3
10:53 8.6 6.1 84 1012.0 15.9 S 22.1 0.0 5.3
10:54 8.6 6.1 84 1012.1 15.2 S 22.1 0.0 5.3
10:55 8.6 6.1 84 1012.0 18.3 S 22.1 0.0 5.3
10:56 8.6 6.1 84 1011.9 18.3 S 22.1 0.0 5.3
10:57 8.6 6.1 84 1012.0 16.8 S 22.1 0.8 5.4
10:58 8.6 6.1 84 1012.0 13.6 SW 22.1 0.8 5.4
10:59 8.7 6.1 84 1012.0 19.7 S 22.1 0.8 5.4
11:00 8.7 6.1 84 1011.8 19.7 S 22.1 1.5 5.4
11:01 8.7 6.1 84 1011.8 19.7 S 19.7 1.5 5.4
11:03 8.7 6.1 84 1011.7 19.7 S 19.7 0.8 5.4
11:04 8.7 6.1 84 1011.8 19.7 S 19.7 0.8 5.4
11:05 8.7 6.1 84 1011.8 22.8 SSW 22.8 0.0 5.4
11:06 8.7 6.1 84 1011.7 19.0 SSW 22.8 0.0 5.4
11:07 8.7 6.1 84 1011.7 19.7 S 22.8 0.0 5.5
11:08 8.7 6.1 84 1011.7 19.7 S 22.8 0.8 5.5
11:09 8.7 6.1 84 1011.7 19.7 S 22.8 0.8 5.5
11:10 8.7 6.1 84 1011.8 26.6 SSE 26.6 0.8 5.5
11:11 8.7 6.1 84 1011.7 20.6 S 26.6 1.5 5.5
11:12 8.7 6.1 84 1011.7 15.9 SW 26.6 1.5 5.5
11:13 8.7 6.1 84 1011.6 15.2 S 26.6 0.8 5.5
11:14 8.7 6.1 84 1011.6 16.8 S 26.6 0.8 5.5
11:15 8.8 6.2 84 1011.6 17.4 S 26.6 0.8 5.5
11:16 8.8 6.2 84 1011.5 15.2 S 26.6 0.0 5.5
11:17 8.8 6.2 84 1011.3 19.7 S 26.6 0.0 5.5
11:18 8.8 6.2 84 1011.6 18.3 SE 26.6 0.0 5.5
11:19 8.8 6.4 85 1011.5 19.0 SW 26.6 0.0 5.5
11:21 8.9 6.5 85 1011.6 16.8 S 20.6 0.0 5.6
11:22 8.9 6.5 85 1011.7 20.6 S 20.6 0.8 5.6
11:23 8.9 6.5 85 1011.3 22.1 SSE 22.1 0.8 5.6
11:24 8.9 6.5 85 1011.6 22.1 S 22.1 0.8 5.6
11:25 8.9 6.5 85 1011.6 22.1 S 22.1 0.8 5.6
11:26 8.9 6.5 85 1011.6 19.0 S 22.1 0.8 5.6
11:27 8.9 6.5 85 1011.4 20.6 S 22.1 0.8 5.7
11:28 8.9 6.5 85 1011.7 20.6 S 22.1 0.8 5.7
11:29 8.9 6.5 85 1011.5 18.3 S 22.1 0.8 5.7
11:30 9.0 6.6 85 1011.6 16.8 S 22.1 0.8 5.7
11:31 9.0 6.6 85 1011.4 19.0 SSE 22.1 0.8 5.7
11:32 9.0 6.6 85 1011.5 19.0 SW 22.1 0.0 5.7
11:33 9.0 6.6 85 1011.5 18.3 S 22.1 0.0 5.7
11:35 9.0 6.6 85 1011.1 19.0 SW 20.6 0.0 5.7
11:36 9.0 6.6 85 1011.3 16.8 SW 20.6 0.0 5.7
11:37 9.0 6.6 85 1011.4 18.3 SW 20.6 0.0 5.7
11:38 9.0 6.6 85 1011.3 17.4 S 20.6 0.0 5.7
11:39 9.0 6.6 85 1011.4 15.9 S 20.6 0.8 5.7
11:40 9.0 6.6 85 1011.4 15.9 S 20.6 0.8 5.7
11:41 9.0 6.6 85 1011.4 14.5 S 20.6 0.8 5.7
11:42 9.0 6.6 85 1011.4 16.8 S 20.6 0.8 5.7
11:43 9.0 6.6 85 1011.1 15.9 S 20.6 0.8 5.7
11:44 9.0 6.6 85 1011.1 15.9 SW 20.6 0.0 5.7
11:45 9.0 6.6 85 1011.3 23.5 S 23.5 0.8 5.8
11:46 9.0 6.6 85 1011.1 21.3 S 23.5 0.8 5.8
11:47 9.0 6.6 85 1011.1 21.3 S 23.5 0.8 5.8
11:49 9.0 6.6 85 1011.3 18.3 SW 23.5 0.8 5.8
11:50 9.1 6.7 85 1011.2 20.6 SW 23.5 0.0 5.8
11:51 9.1 6.7 85 1011.1 19.0 S 23.5 0.0 5.8
11:52 9.1 6.7 85 1011.0 19.0 S 23.5 0.0 5.8
11:53 9.1 6.7 85 1011.0 20.6 S 23.5 0.0 5.8
11:54 9.1 6.7 85 1011.0 20.6 S 23.5 0.0 5.8
11:55 9.1 6.7 85 1011.2 20.6 S 21.3 0.0 5.8
11:56 9.1 6.7 85 1011.1 19.0 S 21.3 0.0 5.8
11:57 9.1 6.7 85 1011.3 22.8 S 22.8 0.0 5.8
11:58 9.1 6.7 85 1011.1 19.7 S 22.8 0.0 5.9
11:59 9.1 6.7 85 1010.8 18.3 S 22.8 0.8 5.9
12:00 9.1 6.7 85 1011.1 16.8 S 22.8 0.8 5.9
12:01 9.1 6.7 85 1010.8 16.8 S 22.8 0.8 5.9
12:03 9.1 6.7 85 1010.9 16.8 S 22.8 0.8 5.9
12:04 9.1 6.7 85 1010.7 16.8 S 22.8 0.0 5.9
12:05 9.1 6.7 85 1011.0 22.1 S 22.8 0.0 5.9
12:06 9.1 6.7 85 1010.8 14.5 S 22.8 0.0 5.9
12:07 9.1 6.7 85 1010.9 15.2 S 22.8 0.0 5.9
12:08 9.1 6.7 85 1010.9 15.2 S 22.1 0.0 5.9
12:09 9.1 6.7 85 1010.6 18.3 SW 22.1 0.8 5.9
12:10 9.1 6.7 85 1010.7 17.4 S 22.1 0.8 5.9
12:11 9.1 6.7 85 1010.8 17.4 S 22.1 0.8 5.9
12:12 9.1 6.7 85 1010.7 14.5 SW 22.1 0.8 5.9
12:13 9.1 6.7 85 1010.6 16.8 S 22.1 0.8 5.9
12:14 9.1 6.7 85 1010.7 16.8 SW 22.1 0.0 5.9
12:15 9.2 6.8 85 1010.5 20.6 SW 22.1 0.0 5.9
12:16 9.2 6.8 85 1010.7 19.0 S 20.6 0.8 6.0
12:18 9.2 6.8 85 1010.6 14.5 SW 20.6 0.8 6.0
12:19 9.2 6.8 85 1010.6 18.3 S 20.6 0.8 6.0
12:20 9.2 6.8 85 1010.5 18.3 S 20.6 0.8 6.0
12:21 9.2 6.8 85 1010.6 15.9 S 20.6 0.0 6.0
12:22 9.2 6.8 85 1010.7 15.9 S 20.6 0.0 6.0
12:23 9.2 6.8 85 1010.5 16.8 S 20.6 0.0 6.0
12:24 9.2 6.8 85 1010.4 20.6 S 20.6 0.0 6.0
12:25 9.2 6.8 85 1010.5 16.8 SW 20.6 0.0 6.0
12:26 9.2 6.8 85 1010.5 17.4 S 20.6 0.0 6.0
12:27 9.2 6.8 85 1010.5 15.2 S 20.6 0.0 6.0
12:28 9.2 6.8 85 1010.4 17.4 S 20.6 0.0 6.0
12:29 9.2 7.0 86 1010.4 14.5 S 20.6 0.0 6.0
12:30 9.3 7.1 86 1010.4 15.9 S 20.6 0.0 6.0
12:31 9.3 7.1 86 1010.4 16.8 SSW 20.6 0.0 6.0
12:33 9.3 7.1 86 1010.4 22.1 S 22.1 0.0 6.0
12:34 9.3 7.1 86 1010.4 19.0 S 22.1 0.0 6.0
12:35 9.3 7.1 86 1010.4 15.2 S 22.1 0.0 6.0
12:36 9.3 7.1 86 1010.4 19.7 SW 22.1 0.0 6.0
12:37 9.3 7.1 86 1010.4 19.7 SW 22.1 0.0 6.0
12:38 9.3 7.1 86 1010.5 15.2 S 22.1 0.0 6.0
12:39 9.3 7.1 86 1010.4 17.4 SSW 22.1 0.0 6.0
12:40 9.3 7.1 86 1010.6 20.6 S 22.1 0.0 6.0
12:41 9.3 7.1 86 1010.4 19.7 S 22.1 0.0 6.0
12:42 9.3 7.1 86 1010.3 17.4 WSW 22.1 0.0 6.0
12:43 9.3 7.1 86 1010.5 19.0 S 22.1 0.8 6.0
12:44 9.4 7.2 86 1010.4 18.3 S 20.6 0.8 6.0
12:45 9.4 7.2 86 1010.6 22.1 S 22.1 0.8 6.0
12:46 9.4 7.2 86 1010.5 17.4 SW 22.1 0.8 6.0
12:48 9.4 7.2 86 1010.2 18.3 S 22.1 0.0 6.0
12:49 9.4 7.2 86 1010.2 25.1 SSW 25.1 0.0 6.0
12:50 9.4 7.2 86 1010.4 18.3 S 25.1 0.0 6.0
12:51 9.4 7.2 86 1010.2 21.3 S 25.1 0.0 6.0
12:52 9.5 7.3 86 1010.3 19.7 S 25.1 0.0 6.0
12:53 9.5 7.3 86 1010.3 19.7 S 25.1 0.0 6.0
12:54 9.5 7.3 86 1010.2 17.4 E 25.1 0.0 6.0
12:55 9.5 7.3 86 1010.3 25.9 S 25.9 0.0 6.0
12:56 9.5 7.3 86 1010.2 25.9 S 25.9 0.0 6.0
12:57 9.5 7.3 86 1010.2 15.2 S 25.9 0.0 6.0
12:58 9.5 7.3 86 1010.3 21.3 WSW 25.9 0.0 6.0
12:59 9.5 7.3 86 1010.4 15.9 S 25.9 0.0 6.0
13:00 9.5 7.3 86 1010.2 21.3 S 25.9 0.0 6.0
13:01 9.5 7.3 86 1010.3 21.3 S 25.9 0.0 6.0
13:03 9.6 7.4 86 1010.3 18.3 S 25.9 0.0 6.0
13:04 9.6 7.4 86 1010.3 18.3 S 25.9 0.0 6.0
13:05 9.7 7.5 86 1010.6 20.6 S 25.9 0.0 6.0
13:06 9.7 7.5 86 1010.2 19.7 SW 25.1 0.0 6.0
13:07 9.7 7.5 86 1010.3 16.8 SW 25.1 0.0 6.0
13:08 9.7 7.5 86 1010.3 23.5 S 25.1 0.0 6.0
13:09 9.7 7.5 86 1010.3 21.3 SSW 25.1 0.0 6.0
13:10 9.7 7.5 86 1010.4 19.0 S 25.1 0.0 6.0
13:11 9.7 7.5 86 1010.3 17.4 SW 25.1 0.0 6.0
13:12 9.7 7.5 86 1010.2 16.8 SSW 25.1 0.0 6.0
13:13 9.7 7.5 86 1010.0 22.1 S 25.1 0.0 6.0
13:14 9.7 7.5 86 1010.2 20.6 S 23.5 0.0 6.0
13:15 9.7 7.5 86 1010.2 19.0 W 23.5 0.0 6.0
13:16 9.7 7.5 86 1010.1 15.9 SSE 23.5 0.0 6.0
13:17 9.8 7.6 86 1009.9 16.8 S 23.5 0.0 6.0
13:18 9.8 7.6 86 1010.0 15.9 SE 23.5 0.0 6.0
13:19 9.8 7.6 86 1010.3 18.3 S 22.1 0.0 6.0
13:20 9.8 7.7 87 1010.1 25.1 S 25.1 0.0 6.0
13:21 9.8 7.7 87 1010.2 31.1 SW 31.1 0.0 6.1
13:23 9.8 7.7 87 1010.0 22.1 SE 31.1 0.8 6.1
13:24 9.8 7.7 87 1010.0 22.1 SW 31.1 0.8 6.1
13:25 9.8 7.7 87 1009.9 19.7 S 31.1 0.8 6.1
13:26 9.8 7.7 87 1010.2 14.5 SW 31.1 0.8 6.1
13:27 9.8 7.7 87 1009.9 15.9 SW 31.1 0.0 6.1
13:28 9.8 7.7 87 1009.9 15.9 SW 31.1 0.0 6.1
13:29 9.9 7.8 87 1010.2 16.8 SW 31.1 0.0 6.1
13:30 9.9 7.8 87 1010.1 20.6 S 31.1 0.0 6.1
13:31 9.9 7.8 87 1010.2 20.6 S 31.1 0.0 6.1
13:32 9.9 7.8 87 1009.9 18.3 S 22.1 0.0 6.1
13:33 9.9 7.8 87 1010.3 16.8 SW 22.1 0.0 6.1
13:34 9.9 7.8 87 1010.0 18.3 N 22.1 0.0 6.1
13:35 9.9 7.8 87 1010.1 17.4 SW 20.6 0.0 6.1
13:36 9.9 7.8 87 1010.1 19.0 SW 20.6 0.0 6.1
13:37 9.9 7.8 87 1010.1 19.0 SW 20.6 0.0 6.1
13:39 10.0 7.9 87 1010.0 17.4 S 20.6 0.0 6.1
13:40 10.0 7.9 87 1010.0 21.3 WSW 21.3 0.0 6.1
13:41 10.0 7.9 87 1010.2 18.3 S 21.3 0.0 6.1
13:42 10.0 7.9 87 1010.1 18.3 S 21.3 0.0 6.1
13:43 10.0 7.9 87 1010.1 11.4 S 21.3 0.0 6.1
13:44 10.0 7.9 87 1010.1 11.4 S 21.3 0.0 6.1
13:45 10.0 7.9 87 1010.0 20.6 WSW 21.3 0.0 6.1
13:46 10.0 7.9 87 1010.3 21.3 SSW 21.3 0.0 6.1
13:47 10.0 7.9 87 1010.1 16.8 SW 21.3 0.0 6.1
13:48 10.0 7.9 87 1010.1 16.8 SW 21.3 0.0 6.1
13:49 10.0 7.9 87 1010.0 14.5 SW 21.3 0.0 6.1
13:50 10.0 7.9 87 1010.2 18.3 S 21.3 0.0 6.1
13:51 10.0 7.9 87 1010.1 16.8 S 21.3 0.0 6.1
13:52 10.0 7.9 87 1010.0 19.0 WSW 21.3 0.0 6.1
13:54 10.1 8.0 87 1010.1 16.8 S 21.3 0.0 6.1
13:55 10.1 8.0 87 1010.1 16.8 SW 21.3 0.0 6.1
13:56 10.1 8.0 87 1010.2 15.2 S 19.0 0.0 6.1
13:57 10.1 8.0 87 1010.0 16.8 SW 19.0 0.0 6.1
13:58 10.1 8.0 87 1010.2 15.2 SW 19.0 0.0 6.2
13:59 10.1 8.0 87 1010.2 17.4 S 19.7 0.8 6.2
14:00 10.1 8.0 87 1010.2 17.4 S 19.7 0.8 6.2
14:01 10.1 8.0 87 1010.0 17.4 S 19.7 0.8 6.2
14:02 10.1 8.0 87 1009.9 17.4 S 19.7 0.8 6.2
14:03 10.1 8.0 87 1009.6 17.4 S 19.7 0.8 6.2
14:04 10.1 8.0 87 1009.9 17.4 S 19.7 0.0 6.2
14:05 10.1 8.0 87 1009.9 17.4 S 19.7 0.0 6.2
14:06 10.1 8.0 87 1009.8 14.5 S 20.6 0.0 6.2
14:07 10.2 8.1 87 1009.9 14.5 SW 20.6 0.0 6.2
14:08 10.2 8.1 87 1009.8 13.6 W 20.6 0.0 6.2
14:09 10.2 8.1 87 1010.0 15.2 S 20.6 0.0 6.2
14:10 10.2 8.1 87 1010.0 14.5 S 20.6 0.0 6.2
14:12 10.2 8.1 87 1009.8 19.0 SW 20.6 0.0 6.2
14:13 10.2 8.1 87 1009.6 18.3 S 20.6 0.0 6.2
14:14 10.2 8.1 87 1009.9 18.3 SW 20.6 0.0 6.2
14:15 10.2 8.1 87 1009.8 15.9 S 20.6 0.0 6.2
14:16 10.2 8.1 87 1009.9 15.9 SW 19.0 0.0 6.2
14:17 10.2 8.1 87 1009.9 15.9 SW 19.0 0.0 6.2
14:18 10.2 8.1 87 1009.7 12.1 SW 19.0 0.0 6.2
14:19 10.3 8.4 88 1009.8 15.9 SW 19.0 0.0 6.2
14:20 10.3 8.4 88 1009.8 16.8 WSW 19.0 0.0 6.2
14:21 10.3 8.4 88 1009.7 11.4 SW 19.0 0.0 6.2
14:22 10.3 8.4 88 1009.8 13.0 SSW 19.0 0.0 6.2
14:23 10.3 8.4 88 1009.9 12.1 SSW 18.3 0.0 6.2
14:24 10.3 8.4 88 1010.0 18.3 SE 18.3 0.0 6.2
14:25 10.3 8.4 88 1009.7 17.4 SSW 18.3 0.0 6.2
14:26 10.3 8.4 88 1009.6 14.5 SW 18.3 0.0 6.2
14:27 10.3 8.4 88 1009.6 13.0 S 18.3 0.0 6.2
14:29 10.3 8.4 88 1009.7 10.7 S 18.3 0.0 6.2
14:30 10.3 8.4 88 1009.9 11.4 SW 18.3 0.0 6.2
14:31 10.3 8.4 88 1009.8 15.2 S 18.3 0.0 6.2
14:32 10.3 8.4 88 1009.8 15.2 SW 18.3 0.0 6.2
14:33 10.3 8.4 88 1009.8 13.0 S 18.3 0.0 6.2
14:34 10.3 8.4 88 1009.7 13.0 S 17.4 0.0 6.2
14:35 10.3 8.4 88 1009.7 16.8 S 16.8 0.0 6.2
14:36 10.4 8.5 88 1009.6 12.1 SW 16.8 0.0 6.2
14:37 10.4 8.5 88 1009.6 16.8 SW 16.8 0.0 6.2
14:38 10.4 8.5 88 1009.5 15.2 SW 16.8 0.0 6.2
14:39 10.4 8.5 88 1009.8 14.5 SW 16.8 0.0 6.2
14:40 10.4 8.5 88 1009.9 14.5 NW 16.8 0.0 6.2
14:41 10.4 8.5 88 1009.8 15.2 S 16.8 0.0 6.2
14:42 10.4 8.5 88 1009.6 11.4 S 16.8 0.0 6.2
14:43 10.4 8.5 88 1009.7 9.2 SW 16.8 0.0 6.2
14:45 10.4 8.5 88 1009.8 14.5 SW 16.8 0.0 6.2
14:46 10.4 8.5 88 1009.7 9.2 WSW 16.8 0.0 6.2
14:47 10.4 8.5 88 1009.8 10.7 SW 15.2 0.0 6.2
14:48 10.4 8.5 88 1009.7 11.4 SW 15.2 0.0 6.2
14:49 10.4 8.5 88 1009.6 12.1 SW 15.2 0.0 6.2
14:50 10.4 8.5 88 1009.5 10.7 S 15.2 0.0 6.2
14:51 10.4 8.5 88 1009.6 10.7 SW 14.5 0.0 6.2
14:52 10.4 8.5 88 1009.9 12.1 SW 14.5 0.0 6.2
14:53 10.4 8.5 88 1009.7 12.1 NW 14.5 0.0 6.2
14:54 10.4 8.5 88 1009.7 12.1 WSW 14.5 0.0 6.2
14:55 10.4 8.5 88 1009.6 8.3 SW 14.5 0.0 6.2
14:56 10.4 8.5 88 1009.7 11.4 SW 12.1 0.0 6.2
14:57 10.4 8.5 88 1009.7 11.4 SW 12.1 0.0 6.2
14:58 10.4 8.5 88 1009.6 12.1 SW 13.0 0.0 6.2
14:59 10.4 8.5 88 1009.5 12.1 S 13.0 0.0 6.2
15:00 10.4 8.5 88 1009.7 12.1 SW 13.0 0.0 6.2
15:01 10.4 8.5 88 1009.5 12.1 SW 13.0 0.0 6.2
15:03 10.4 8.5 88 1009.8 12.1 SW 13.0 0.0 6.2
15:04 10.4 8.5 88 1009.7 12.1 SW 13.0 0.0 6.2
15:05 10.4 8.5 88 1009.7 12.1 SW 13.0 0.0 6.2
15:06 10.4 8.5 88 1009.5 12.1 SW 13.0 0.0 6.2
15:07 10.5 8.6 88 1009.5 13.0 W 13.0 0.0 6.2
15:08 10.5 8.6 88 1009.6 13.0 W 13.0 0.0 6.2
15:09 10.5 8.6 88 1009.6 13.0 SSW 13.0 0.0 6.2
15:10 10.5 8.6 88 1009.6 13.0 SW 13.0 0.0 6.2
15:11 10.5 8.6 88 1009.6 13.0 SW 13.0 0.0 6.2
15:12 10.5 8.6 88 1009.6 12.1 SW 13.0 0.0 6.2
15:13 10.5 8.6 88 1009.7 9.8 SW 13.0 0.0 6.2
15:14 10.5 8.6 88 1009.9 10.7 S 13.0 0.0 6.2
15:15 10.5 8.6 88 1009.6 9.2 SW 13.0 0.0 6.2
15:16 10.5 8.6 88 1009.5 9.8 SW 13.0 0.0 6.2
15:17 10.5 8.6 88 1009.5 9.8 S 13.0 0.0 6.2
15:18 10.5 8.6 88 1009.6 10.7 S 13.0 0.0 6.2
15:19 10.5 8.6 88 1009.3 8.3 SW 13.0 0.0 6.2
15:20 10.5 8.6 88 1009.3 7.6 SW 13.0 0.0 6.2
15:21 10.5 8.6 88 1009.4 9.8 SW 13.0 0.0 6.2
15:22 10.5 8.6 88 1009.5 10.7 W 10.7 0.0 6.2
15:24 10.5 8.6 88 1009.5 9.8 SW 11.4 0.0 6.2
15:25 10.5 8.6 88 1009.4 8.3 SW 11.4 0.0 6.2
15:26 10.5 8.6 88 1009.6 12.1 SW 12.1 0.0 6.2
15:27 10.5 8.6 88 1009.5 10.7 SW 12.1 0.0 6.2
15:28 10.5 8.6 88 1009.7 9.8 SW 12.1 0.0 6.2
15:29 10.5 8.6 88 1009.5 9.8 W 12.1 0.0 6.2
15:30 10.6 8.7 88 1009.6 9.2 SE 12.1 0.0 6.2
15:31 10.6 8.7 88 1009.4 10.7 SW 12.1 0.0 6.2
15:32 10.6 8.7 88 1009.5 10.7 SW 12.1 0.0 6.2
15:33 10.6 8.7 88 1009.5 9.2 SW 12.1 0.0 6.2
15:34 10.6 8.7 88 1009.4 9.2 SW 12.1 0.0 6.2
15:35 10.6 8.7 88 1009.7 8.3 SW 12.1 0.0 6.2
15:36 10.6 8.7 88 1009.5 9.2 SW 12.1 0.0 6.2
15:37 10.6 8.7 88 1009.6 9.2 SW 12.1 0.0 6.2
15:38 10.6 8.7 88 1009.5 8.3 SW 13.0 0.0 6.2
15:39 10.6 8.7 88 1009.6 13.6 SW 13.6 0.0 6.2
15:40 10.6 8.7 88 1009.6 10.7 SW 13.6 0.0 6.2
15:42 10.6 8.7 88 1009.4 8.3 W 13.6 0.0 6.2
15:43 10.6 8.7 88 1009.6 9.2 SW 13.6 0.0 6.2
15:44 10.6 8.7 88 1009.6 9.2 SW 13.6 0.0 6.2
15:45 10.6 8.7 88 1009.6 9.8 SW 13.6 0.0 6.2
15:46 10.6 8.7 88 1009.6 13.6 SW 13.6 0.0 6.2
15:47 10.6 8.7 88 1009.4 13.0 SW 13.6 0.0 6.2
15:48 10.5 8.6 88 1009.5 13.0 W 13.6 0.0 6.2
15:49 10.5 8.6 88 1009.5 13.0 WSW 13.6 0.0 6.2
15:50 10.5 8.6 88 1009.5 9.2 SW 13.6 0.0 6.2
15:51 10.5 8.6 88 1009.4 9.8 SW 13.6 0.8 6.2
15:52 10.5 8.6 88 1009.3 11.4 SW 13.6 0.8 6.2
15:53 10.5 8.6 88 1009.6 8.3 S 13.6 0.8 6.2
15:54 10.5 8.6 88 1009.4 9.8 WSW 13.6 0.8 6.2
15:55 10.5 8.6 88 1009.2 9.8 SW 13.6 0.8 6.2
15:56 10.5 8.6 88 1009.4 10.7 SW 13.0 0.0 6.2
15:58 10.5 8.6 88 1009.4 9.2 S 13.0 0.0 6.2
15:59 10.5 8.6 88 1009.5 9.2 SW 13.0 0.0 6.2
16:00 10.5 8.6 88 1009.5 9.2 SW 11.4 0.0 6.2
16:01 10.5 8.6 88 1009.4 7.6 S 11.4 0.0 6.2
16:02 10.5 8.6 88 1009.5 8.3 SW 10.7 0.0 6.2
16:03 10.5 8.6 88 1009.7 6.9 SW 10.7 0.0 6.2
16:04 10.5 8.6 88 1009.6 7.6 W 10.7 0.0 6.2
16:05 10.5 8.6 88 1009.9 9.2 W 10.7 0.0 6.2
16:06 10.5 8.6 88 1009.7 8.3 W 10.7 0.0 6.2
16:07 10.5 8.6 88 1009.6 6.9 SW 9.2 0.0 6.2
16:08 10.5 8.6 88 1009.6 8.3 SW 9.2 0.0 6.2
16:09 10.5 8.6 88 1009.8 7.6 W 9.2 0.0 6.2
16:10 10.5 8.6 88 1009.8 8.3 SW 9.2 0.0 6.2
16:11 10.5 8.6 88 1010.0 7.6 SW 9.2 0.0 6.2
16:13 10.5 8.6 88 1009.9 9.2 W 9.2 0.0 6.2
16:14 10.5 8.6 88 1010.0 8.3 SW 9.2 0.0 6.2
16:15 10.5 8.6 88 1009.9 7.6 SW 9.2 0.0 6.2
16:16 10.5 8.6 88 1010.0 5.4 SW 9.2 0.0 6.2
16:17 10.5 8.6 88 1010.0 6.0 SW 9.2 0.0 6.2
16:18 10.5 8.6 88 1010.1 8.3 SW 9.2 0.0 6.2
16:19 10.5 8.6 88 1010.1 7.6 SW 9.2 0.0 6.2
16:20 10.5 8.6 88 1010.1 8.3 SW 9.2 0.0 6.2
16:21 10.5 8.6 88 1010.0 8.3 W 9.2 0.0 6.2
16:22 10.4 8.5 88 1010.2 6.0 W 9.2 0.0 6.2
16:23 10.4 8.5 88 1010.1 6.0 W 9.2 0.0 6.2
16:24 10.4 8.5 88 1010.0 6.0 W 8.3 0.0 6.2
16:25 10.4 8.5 88 1009.9 6.0 W 8.3 0.0 6.2
16:26 10.4 8.5 88 1010.1 6.9 SW 8.3 0.0 6.2
16:27 10.4 8.5 88 1010.0 7.6 SW 8.3 0.0 6.2
16:29 10.4 8.5 88 1010.1 6.9 W 8.3 0.0 6.2
16:30 10.4 8.5 88 1010.2 6.9 W 8.3 0.0 6.2
16:31 10.4 8.5 88 1010.3 6.0 SW 8.3 0.0 6.2
16:32 10.4 8.5 88 1010.3 6.0 W 7.6 0.0 6.2
16:33 10.4 8.5 88 1010.4 6.0 W 7.6 0.0 6.2
16:34 10.4 8.5 88 1010.4 6.0 W 7.6 0.0 6.2
16:35 10.4 8.5 88 1010.2 7.6 SW 7.6 0.0 6.2
16:36 10.4 8.5 88 1010.3 7.6 SW 7.6 0.8 6.3
16:37 10.4 8.5 88 1010.3 4.5 SW 7.6 0.8 6.3
16:38 10.4 8.5 88 1010.1 6.9 NW 7.6 0.8 6.3
16:39 10.4 8.5 88 1010.3 5.4 W 7.6 0.8 6.3
16:40 10.4 8.5 88 1010.4 5.4 W 7.6 0.8 6.3
16:41 10.4 8.5 88 1010.1 6.9 SW 7.6 0.0 6.3
16:42 10.4 8.5 88 1010.2 5.4 SW 7.6 0.0 6.3
16:43 10.4 8.5 88 1010.2 6.9 SW 7.6 0.0 6.3
16:45 10.4 8.5 88 1010.1 5.4 SW 7.6 0.0 6.3
16:46 10.5 8.6 88 1010.2 6.9 W 6.9 0.0 6.3
16:47 10.5 8.6 88 1010.2 5.4 W 6.9 0.0 6.3
16:48 10.5 8.6 88 1010.1 6.0 W 6.9 0.0 6.3
16:49 10.5 8.6 88 1010.1 5.4 W 6.9 0.0 6.3
16:50 10.5 8.6 88 1010.3 6.0 W 6.9 0.0 6.3
16:51 10.5 8.6 88 1010.3 6.0 SW 6.9 0.0 6.3
16:52 10.5 8.6 88 1010.2 6.0 W 6.9 0.0 6.3
16:53 10.5 8.6 88 1010.3 5.4 NW 6.9 0.0 6.3
16:54 10.5 8.6 88 1010.0 4.5 W 6.9 0.0 6.3
16:55 10.5 8.6 88 1010.0 6.0 SW 6.9 0.0 6.3
16:56 10.5 8.6 88 1010.0 5.4 WNW 6.9 0.0 6.3
16:57 10.5 8.6 88 1010.1 4.5 NW 6.0 0.0 6.3
16:58 10.5 8.6 88 1010.1 5.4 W 6.0 0.0 6.3
17:00 10.5 8.6 88 1010.1 6.9 W 6.9 0.0 6.3
17:01 10.5 8.6 88 1010.0 6.9 W 6.9 0.0 6.3
17:02 10.5 8.6 88 1010.3 6.9 W 6.9 0.0 6.3
17:03 10.5 8.6 88 1010.2 6.9 W 6.9 0.0 6.3
17:04 10.5 8.6 88 1010.3 6.9 W 6.9 0.0 6.3
17:05 10.5 8.6 88 1010.3 6.9 W 6.9 0.0 6.3
17:06 10.5 8.6 88 1010.1 6.9 W 6.9 0.0 6.3
17:07 10.5 8.6 88 1010.2 6.9 W 6.9 0.0 6.3
17:08 10.5 8.6 88 1010.2 6.9 W 6.9 0.0 6.3
17:09 10.5 8.6 88 1010.1 8.3 SW 8.3 0.8 6.4
17:10 10.6 8.7 88 1010.2 8.3 WNW 8.3 0.8 6.4
17:11 10.6 8.7 88 1010.1 5.4 SW 8.3 0.8 6.4
17:12 10.6 8.7 88 1010.0 7.6 SW 8.3 0.8 6.4
17:13 10.6 8.7 88 1010.1 7.6 W 8.3 0.8 6.4
17:14 10.6 8.7 88 1010.3 8.3 W 8.3 0.0 6.4
17:15 10.6 8.7 88 1010.3 6.0 SW 8.3 0.0 6.4
17:16 10.6 8.7 88 1010.2 7.6 SW 8.3 0.0 6.4
17:17 10.6 8.7 88 1010.3 9.2 W 9.2 0.0 6.4
17:18 10.6 8.7 88 1010.4 7.6 W 9.2 0.0 6.4
17:19 10.6 8.7 88 1010.1 7.6 SW 9.2 0.0 6.4
17:20 10.6 8.7 88 1010.2 7.6 S 9.2 0.0 6.4
17:21 10.6 8.7 88 1010.1 8.3 SW 9.2 0.0 6.4
17:22 10.6 8.7 88 1010.4 9.8 W 9.8 0.0 6.4
17:23 10.6 8.7 88 1010.3 6.0 NW 9.8 0.0 6.4
17:25 10.6 8.7 88 1010.1 7.6 W 9.8 0.8 6.4
17:26 10.6 8.7 88 1010.2 7.6 NW 9.8 0.8 6.4
17:27 10.6 8.7 88 1010.2 5.4 W 9.8 0.8 6.4
17:28 10.6 8.7 88 1010.2 6.9 NW 9.8 0.8 6.4
17:29 10.6 8.7 88 1010.2 6.9 W 9.8 0.0 6.4
17:30 10.6 8.7 88 1010.2 5.4 W 9.8 0.0 6.4
17:31 10.6 8.7 88 1010.2 8.3 SW 9.8 0.0 6.4
17:32 10.6 8.7 88 1010.1 7.6 WSW 9.8 0.0 6.4
17:33 10.6 8.7 88 1010.2 7.6 W 9.2 0.0 6.4
17:34 10.6 8.7 88 1010.4 5.4 NW 8.3 0.0 6.4
17:35 10.6 8.7 88 1010.1 5.4 W 8.3 0.0 6.4
17:36 10.6 8.7 88 1010.3 5.4 W 8.3 0.0 6.4
17:37 10.6 8.7 88 1010.1 4.5 W 8.3 0.0 6.4
17:39 10.6 8.7 88 1010.1 4.5 W 8.3 0.0 6.4
17:40 10.6 8.7 88 1010.4 5.4 W 8.3 0.0 6.4
17:41 10.6 8.7 88 1010.0 5.4 NW 7.6 0.0 6.4
17:42 10.6 8.7 88 1010.4 6.9 SW 7.6 0.0 6.4
17:43 10.6 8.7 88 1010.3 5.4 W 6.9 0.0 6.4
17:44 10.6 8.7 88 1010.3 5.4 W 6.9 0.0 6.4
17:45 10.6 8.7 88 1010.2 6.0 W 6.9 0.0 6.4
17:46 10.6 8.7 88 1010.5 5.4 W 6.9 0.0 6.4
17:47 10.6 8.7 88 1010.3 4.5 W 6.9 0.0 6.4
17:48 10.6 8.7 88 1010.3 3.8 S 6.9 0.0 6.4
17:49 10.5 8.6 88 1010.3 5.4 SW 6.9 0.0 6.4
17:50 10.5 8.6 88 1010.5 8.3 SW 8.3 0.0 6.4
17:51 10.5 8.6 88 1010.2 5.4 W 8.3 0.0 6.4
17:52 10.5 8.6 88 1010.3 5.4 W 8.3 0.0 6.4
17:54 10.5 8.6 88 1010.2 3.8 SW 8.3 0.0 6.4
17:55 10.5 8.6 88 1010.4 4.5 SW 8.3 0.0 6.4
17:56 10.5 8.6 88 1010.5 3.8 SW 8.3 0.0 6.4
17:57 10.5 8.6 88 1010.4 3.8 S 8.3 0.0 6.4
17:58 10.5 8.6 88 1010.4 3.8 SW 8.3 0.0 6.4
17:59 10.5 8.6 88 1010.2 4.5 W 8.3 0.0 6.4
18:00 10.5 8.6 88 1010.5 4.5 SW 8.3 0.0 6.4
18:01 10.5 8.6 88 1010.3 4.5 S 5.4 0.0 6.4
18:02 10.5 8.6 88 1010.3 3.8 W 5.4 0.0 6.4
18:03 10.5 8.6 88 1010.3 3.8 W 5.4 0.0 6.4
18:04 10.5 8.6 88 1010.3 3.1 WSW 5.4 0.0 6.4
18:05 10.5 8.6 88 1010.4 3.1 SW 5.4 0.0 6.4
18:06 10.5 8.6 88 1010.2 3.8 WSW 4.5 0.0 6.4
18:07 10.5 8.6 88 1010.3 3.1 SW 4.5 0.0 6.4
18:09 10.5 8.6 88 1010.5 3.8 SW 4.5 0.0 6.4
18:10 10.5 8.6 88 1010.2 3.1 SW 4.5 0.0 6.4
18:11 10.5 8.6 88 1010.3 3.8 SW 4.5 0.0 6.4
18:12 10.5 8.6 88 1010.3 4.5 S 4.5 0.0 6.4
18:13 10.5 8.6 88 1010.3 4.5 S 4.5 0.0 6.4
18:14 10.5 8.6 88 1010.5 3.8 W 4.5 0.0 6.4
18:15 10.5 8.6 88 1010.4 4.5 SW 4.5 0.0 6.4
18:16 10.5 8.6 88 1010.5 3.8 SW 4.5 0.0 6.4
18:17 10.5 8.6 88 1010.5 3.8 SW 4.5 0.0 6.4
18:18 10.5 8.6 88 1010.3 5.4 SW 5.4 0.0 6.4
18:19 10.5 8.6 88 1010.5 3.8 S 5.4 0.0 6.4
18:20 10.5 8.6 88 1010.3 5.4 SW 5.4 0.0 6.4
18:21 10.5 8.6 88 1010.5 5.4 SW 5.4 0.0 6.4
18:22 10.5 8.6 88 1010.6 4.5 S 5.4 0.0 6.4
18:24 10.4 8.5 88 1010.4 4.5 W 6.9 0.0 6.4
18:25 10.4 8.5 88 1010.5 4.5 W 6.9 0.0 6.4
18:26 10.4 8.5 88 1010.6 3.8 W 6.9 0.0 6.4
18:27 10.4 8.5 88 1010.4 4.5 SW 6.9 0.0 6.4
18:28 10.4 8.5 88 1010.6 4.5 SW 6.9 0.0 6.4
18:29 10.4 8.5 88 1010.6 4.5 SW 6.9 0.0 6.4
18:30 10.4 8.5 88 1010.6 6.0 W 6.9 0.0 6.4
18:31 10.4 8.5 88 1010.6 6.0 S 6.9 0.0 6.4
18:32 10.4 8.5 88 1010.4 4.5 SW 6.9 0.0 6.4
18:33 10.4 8.5 88 1010.5 5.4 SW 6.9 0.0 6.4
18:34 10.4 8.5 88 1010.7 5.4 W 6.0 0.0 6.4
18:35 10.4 8.5 88 1010.5 3.8 W 6.0 0.0 6.4
18:36 10.4 8.5 88 1010.6 4.5 W 6.0 0.0 6.4
18:38 10.4 8.5 88 1010.6 6.0 SW 6.0 0.0 6.4
18:39 10.4 8.5 88 1010.4 3.8 SW 6.0 0.0 6.4
18:40 10.4 8.5 88 1010.6 3.1 SW 6.0 0.0 6.4
18:41 10.4 8.5 88 1010.6 2.2 W 6.0 0.0 6.4
18:42 10.4 8.5 88 1010.5 2.2 W 6.0 0.0 6.4
18:43 10.4 8.5 88 1010.6 4.5 W 6.0 0.0 6.4
18:44 10.4 8.5 88 1010.7 3.8 W 6.0 0.0 6.4
18:45 10.4 8.5 88 1010.8 5.4 W 6.0 0.0 6.4
18:46 10.3 8.4 88 1010.4 5.4 W 6.0 0.0 6.4
18:47 10.3 8.4 88 1010.7 4.5 W 6.0 0.0 6.4
18:48 10.3 8.4 88 1010.6 3.1 SW 6.0 0.8 6.5
18:49 10.3 8.4 88 1010.6 3.8 SW 5.4 0.8 6.5
18:50 10.3 8.4 88 1010.6 6.0 W 6.0 0.8 6.5
18:51 10.3 8.4 88 1010.5 4.5 SW 6.0 0.8 6.5
18:53 10.3 8.4 88 1010.6 4.5 W 6.0 0.0 6.5
18:54 10.3 8.4 88 1010.7 4.5 W 6.0 0.0 6.5
18:55 10.3 8.4 88 1010.6 3.8 W 6.0 0.0 6.5
18:56 10.3 8.4 88 1010.7 3.8 WSW 6.0 0.0 6.5
18:57 10.3 8.4 88 1010.7 3.8 WSW 6.0 0.0 6.5
18:58 10.3 8.4 88 1010.8 4.5 W 6.0 0.0 6.5
18:59 10.3 8.4 88 1010.8 6.9 SW 6.9 0.0 6.5
19:00 10.3 8.4 88 1010.9 6.9 W 6.9 0.0 6.5
19:01 10.3 8.4 88 1010.8 6.9 W 6.9 0.0 6.5
19:02 10.3 8.4 88 1010.9 6.9 W 6.9 0.0 6.5
19:03 10.3 8.4 88 1011.2 6.9 W 6.9 0.0 6.5
19:04 10.3 8.4 88 1011.1 6.9 W 6.9 0.0 6.5
19:05 10.3 8.4 88 1011.1 6.9 W 6.9 0.0 6.5
19:07 10.2 8.3 88 1011.1 6.0 W 6.9 0.0 6.5
19:08 10.2 8.3 88 1011.2 6.0 SW 6.9 0.0 6.5
19:09 10.2 8.3 88 1011.2 6.0 SW 6.9 0.0 6.5
19:10 10.2 8.3 88 1011.2 7.6 W 7.6 0.0 6.5
19:11 10.2 8.3 88 1011.4 7.6 W 7.6 0.0 6.5
19:12 10.2 8.3 88 1011.4 7.6 W 7.6 0.0 6.5
19:13 10.2 8.3 88 1011.6 6.0 W 7.6 0.0 6.5
19:14 10.2 8.3 88 1011.6 7.6 NE 7.6 0.0 6.5
19:15 10.2 8.3 88 1011.6 9.2 W 9.2 0.0 6.5
19:16 10.2 8.3 88 1011.4 6.9 SW 9.2 0.0 6.5
19:17 10.2 8.3 88 1011.5 6.0 W 9.2 0.0 6.5
19:18 10.2 8.3 88 1011.7 5.4 SW 9.2 0.0 6.5
19:19 10.2 8.3 88 1011.5 6.9 W 9.2 0.0 6.5
19:20 10.2 8.3 88 1011.5 8.3 SW 9.2 0.0 6.5
19:21 10.2 8.3 88 1011.4 8.3 SW 9.2 0.0 6.5
19:22 10.2 8.3 88 1011.4 9.2 SW 9.2 0.0 6.5
19:23 10.1 8.2 88 1011.4 9.2 W 9.2 0.0 6.5
19:24 10.1 8.2 88 1011.3 8.3 W 9.2 0.0 6.5
19:25 10.1 8.2 88 1011.6 6.0 SW 9.2 0.0 6.5
19:26 10.1 8.2 88 1011.7 6.9 SW 9.2 0.0 6.5
19:28 10.1 8.2 88 1011.5 9.2 NW 9.2 0.0 6.5
19:29 10.1 8.2 88 1011.4 5.4 NW 9.2 0.0 6.5
19:30 10.1 8.2 88 1011.6 7.6 W 9.2 0.0 6.5
19:31 10.0 8.1 88 1011.6 6.9 SW 9.2 0.0 6.5
19:32 10.0 8.1 88 1011.6 6.9 SW 9.2 0.0 6.5
19:33 10.0 8.1 88 1011.6 5.4 W 9.2 0.0 6.5
19:34 10.0 8.1 88 1011.5 4.5 W 9.2 0.0 6.5
19:35 10.0 8.1 88 1011.6 6.9 SW 9.2 0.0 6.5
19:36 10.0 8.1 88 1011.7 6.0 SW 9.2 0.0 6.5
19:37 10.0 8.1 88 1011.5 5.4 W 9.2 0.0 6.5
19:38 10.0 8.1 88 1011.5 6.9 W 9.2 0.0 6.5
19:39 10.0 8.1 88 1011.5 6.0 SW 7.6 0.0 6.5
19:40 10.0 8.1 88 1011.6 5.4 SW 7.6 0.0 6.5
19:42 10.0 8.1 88 1011.5 6.0 SW 6.9 0.0 6.5
19:43 10.0 8.1 88 1011.8 3.8 W 6.9 0.0 6.5
19:44 10.0 8.1 88 1011.6 5.4 SW 6.9 0.0 6.5
19:45 10.0 8.1 88 1011.6 6.9 W 6.9 0.0 6.5
19:46 10.0 8.1 88 1011.6 8.3 SW 8.3 0.0 6.5
19:47 9.9 8.0 88 1011.6 9.2 SW 9.2 0.0 6.5
19:48 9.9 8.0 88 1011.6 9.2 NW 9.2 0.0 6.5
19:49 9.9 8.0 88 1011.7 9.2 NW 9.2 0.0 6.5
19:50 9.9 8.0 88 1011.7 8.3 W 9.2 0.0 6.5
19:51 9.9 8.0 88 1011.7 5.4 NW 9.2 0.0 6.5
19:52 9.9 8.0 88 1011.7 5.4 W 9.2 0.0 6.5
19:53 9.9 8.0 88 1011.8 3.8 SW 9.2 0.0 6.5
19:54 9.9 8.0 88 1011.7 8.3 W 9.2 0.0 6.5
19:56 9.9 8.0 88 1011.6 6.0 W 9.2 0.0 6.5
19:57 9.8 7.9 88 1011.7 4.5 W 9.2 0.0 6.5
19:58 9.8 7.9 88 1011.7 6.0 W 9.2 0.0 6.5
19:59 9.8 7.9 88 1011.6 5.4 SW 9.2 0.0 6.5
20:00 9.8 7.9 88 1011.7 7.6 SW 8.3 0.0 6.5
20:01 9.8 7.9 88 1011.7 7.6 SW 8.3 0.0 6.5
20:02 9.8 7.9 88 1011.7 6.0 W 8.3 0.0 6.5
20:03 9.8 7.9 88 1011.4 8.3 SW 8.3 0.0 6.5
20:04 9.8 7.9 88 1011.5 6.0 S 8.3 0.0 6.5
20:05 9.8 7.9 88 1011.7 7.6 SW 8.3 0.0 6.5
20:06 9.7 7.8 88 1011.8 9.2 W 9.2 0.0 6.5
20:07 9.7 7.8 88 1011.5 8.3 SW 9.2 0.0 6.5
20:08 9.7 7.8 88 1011.6 6.9 SW 9.2 0.0 6.5
20:09 9.7 7.8 88 1011.5 6.9 SW 9.2 0.0 6.5
20:11 9.7 7.8 88 1011.7 7.6 SW 9.2 0.0 6.5
20:12 9.7 7.8 88 1011.7 7.6 SW 9.2 0.0 6.5
20:13 9.7 7.8 88 1011.7 7.6 SW 9.2 0.0 6.5
20:14 9.7 7.8 88 1011.4 7.6 SW 9.2 0.0 6.5
20:15 9.7 7.8 88 1011.8 7.6 SW 9.2 0.0 6.5
20:16 9.7 7.8 88 1011.9 7.6 SW 9.2 0.0 6.5
20:17 9.6 7.7 88 1011.9 6.0 W 8.3 0.0 6.5
20:18 9.6 7.7 88 1011.8 8.3 W 8.3 0.0 6.5
20:19 9.6 7.7 88 1011.7 5.4 SW 8.3 0.0 6.5
20:20 9.6 7.7 88 1011.8 5.4 W 8.3 0.0 6.5
20:21 9.6 7.7 88 1011.8 4.5 S 8.3 0.0 6.5
20:22 9.6 7.7 88 1011.7 6.0 SW 8.3 0.0 6.5
20:23 9.6 7.7 88 1011.8 4.5 W 8.3 0.0 6.5
20:25 9.5 7.6 88 1011.7 4.5 SW 8.3 0.0 6.5
20:26 9.5 7.6 88 1011.7 4.5 SW 8.3 0.0 6.5
20:27 9.5 7.6 88 1011.6 6.0 W 8.3 0.0 6.5
20:28 9.5 7.6 88 1011.8 6.0 W 8.3 0.0 6.5
20:29 9.5 7.6 88 1011.8 6.0 W 6.0 0.0 6.5
20:30 9.5 7.6 88 1011.7 6.0 SW 6.0 0.0 6.5
20:31 9.5 7.6 88 1011.8 6.0 SW 6.0 0.0 6.5
20:32 9.5 7.6 88 1011.9 4.5 W 6.0 0.0 6.5
20:33 9.5 7.6 88 1011.9 4.5 W 6.0 0.0 6.5
20:34 9.5 7.6 88 1011.8 4.5 SW 6.0 0.0 6.5
20:35 9.5 7.6 88 1011.8 5.4 W 6.0 0.0 6.5
20:36 9.5 7.6 88 1011.9 5.4 W 6.0 0.0 6.5
20:37 9.5 7.6 88 1011.8 3.8 SW 6.0 0.0 6.5
20:39 9.4 7.3 87 1011.6 3.8 W 6.0 0.0 6.5
20:40 9.4 7.3 87 1011.7 3.1 SW 6.0 0.0 6.5
20:41 9.4 7.3 87 1011.8 3.1 SW 5.4 0.0 6.5
20:42 9.4 7.3 87 1012.0 3.1 SW 5.4 0.0 6.5
20:43 9.4 7.3 87 1011.8 3.1 SW 5.4 0.0 6.5
20:44 9.4 7.3 87 1012.0 4.5 SW 5.4 0.0 6.5
20:45 9.4 7.3 87 1011.9 4.5 SW 5.4 0.0 6.5
20:46 9.4 7.3 87 1011.9 4.5 SW 5.4 0.0 6.5
20:47 9.4 7.3 87 1012.1 4.5 W 4.5 0.0 6.5
20:48 9.4 7.3 87 1012.2 6.9 SSW 6.9 0.0 6.5
20:49 9.4 7.3 87 1012.1 6.0 SW 6.9 0.0 6.5
20:50 9.4 7.3 87 1012.1 4.5 NW 6.9 0.0 6.5
20:51 9.4 7.3 87 1012.2 4.5 SW 6.9 0.0 6.5
20:53 9.4 7.3 87 1012.2 7.6 SW 7.6 0.0 6.5
20:54 9.4 7.3 87 1012.1 6.0 W 7.6 0.0 6.5
20:55 9.4 7.3 87 1012.2 6.0 SW 7.6 0.0 6.5
20:56 9.4 7.3 87 1012.2 8.3 W 8.3 0.0 6.5
20:57 9.4 7.3 87 1012.2 9.2 W 9.2 0.0 6.5
20:58 9.4 7.3 87 1012.3 8.3 NW 9.2 0.0 6.5
20:59 9.4 7.3 87 1012.3 8.3 NW 9.2 0.0 6.5
21:00 9.4 7.3 87 1012.6 8.3 NW 9.2 0.0 6.5
21:01 9.4 7.3 87 1012.4 8.3 NW 9.2 0.0 6.5
21:02 9.4 7.3 87 1012.6 8.3 NW 9.2 0.0 6.5
21:03 9.4 7.3 87 1012.7 8.3 NW 9.2 0.0 6.5
21:04 9.4 7.3 87 1012.7 8.3 NW 9.2 0.0 6.5
21:05 9.4 7.3 87 1012.7 8.3 NW 9.2 0.0 6.5
21:07 9.4 7.3 87 1012.9 8.3 SW 9.2 0.0 6.6
21:08 9.4 7.3 87 1012.8 6.9 W 8.3 0.8 6.6
21:09 9.4 7.3 87 1012.8 6.9 SW 8.3 0.8 6.6
21:10 9.4 7.3 87 1012.7 6.9 SW 8.3 0.8 6.6
21:11 9.3 7.2 87 1012.5 10.7 SW 10.7 0.8 6.6
21:12 9.3 7.2 87 1012.5 10.7 SW 10.7 0.8 6.6
21:13 9.3 7.2 87 1012.8 10.7 SW 10.7 0.0 6.6
21:14 9.3 7.2 87 1012.8 6.9 SW 10.7 0.0 6.6
21:15 9.3 7.2 87 1012.8 6.9 W 10.7 0.0 6.6
21:16 9.3 7.2 87 1012.5 6.9 W 10.7 0.0 6.6
21:17 9.3 7.2 87 1012.5 6.9 W 10.7 0.0 6.6
21:18 9.3 7.2 87 1012.5 10.7 W 10.7 0.0 6.6
21:19 9.3 7.2 87 1012.4 13.0 SW 13.0 0.0 6.6
21:20 9.3 7.2 87 1012.4 13.0 SW 13.0 0.0 6.6
21:21 9.3 7.2 87 1012.4 13.0 SW 13.0 0.0 6.6
21:22 9.3 7.2 87 1012.2 8.3 W 13.0 0.0 6.6
21:23 9.3 7.2 87 1012.3 8.3 SW 13.0 0.0 6.6
21:24 9.3 7.2 87 1012.3 7.6 NW 13.0 0.0 6.6
21:25 9.3 7.2 87 1012.1 7.6 NW 13.0 0.0 6.6
21:26 9.3 7.2 87 1012.3 9.2 W 13.0 0.0 6.6
21:27 9.3 7.2 87 1012.0 8.3 WSW 13.0 0.0 6.6
21:28 9.3 7.2 87 1012.1 10.7 W 13.0 0.0 6.6
21:30 9.3 7.2 87 1012.1 9.2 W 13.0 0.0 6.6
21:31 9.3 7.2 87 1012.1 8.3 W 10.7 0.0 6.6
21:32 9.3 7.2 87 1011.9 8.3 W 10.7 0.0 6.6
21:33 9.3 7.2 87 1012.1 7.6 W 10.7 0.0 6.6
21:34 9.3 7.2 87 1011.7 7.6 W 10.7 0.0 6.6
21:35 9.3 7.2 87 1012.0 7.6 W 10.7 0.0 6.6
21:36 9.2 7.2 87 1012.0 7.6 W 10.7 0.0 6.6
21:37 9.2 7.2 87 1012.1 12.1 W 12.1 0.0 6.6
21:38 9.2 7.2 87 1012.0 7.6 NW 12.1 0.0 6.6
21:39 9.2 7.2 87 1012.0 7.6 NW 12.1 0.0 6.6
21:40 9.2 7.2 87 1012.2 6.0 SW 12.1 0.0 6.6
21:41 9.2 7.2 87 1012.1 6.0 SW 12.1 0.0 6.6
21:42 9.2 7.2 87 1012.2 6.0 SW 12.1 0.0 6.6
21:43 9.2 7.2 87 1012.3 9.8 W 12.1 0.0 6.6
21:45 9.2 7.2 87 1012.3 6.9 W 12.1 0.0 6.6
21:46 9.2 7.2 87 1012.1 9.2 W 12.1 0.0 6.6
21:47 9.2 7.2 87 1012.3 10.7 SW 10.7 0.0 6.6
21:48 9.2 7.2 87 1012.3 10.7 SW 10.7 0.0 6.6
21:49 9.2 7.2 87 1012.2 6.9 W 10.7 0.0 6.6
21:50 9.2 7.2 87 1012.0 5.4 NW 10.7 0.0 6.6
21:51 9.2 7.2 87 1012.0 5.4 NW 10.7 0.0 6.6
21:52 9.2 7.2 87 1012.0 8.3 W 10.7 0.0 6.6
21:53 9.2 7.2 87 1011.8 8.3 W 10.7 0.0 6.6
21:54 9.2 7.2 87 1012.2 6.0 NW 10.7 0.0 6.6
21:55 9.2 7.2 87 1012.2 5.4 SW 10.7 0.0 6.6
21:56 9.2 7.2 87 1012.1 5.4 SW 10.7 0.0 6.6
21:57 9.2 7.2 87 1012.2 7.6 W 10.7 0.0 6.6
21:58 9.2 7.2 87 1012.1 8.3 SW 10.7 0.0 6.6
22:00 9.2 7.2 87 1012.0 6.0 N 8.3 0.0 6.6
22:01 9.2 7.2 87 1011.9 4.5 W 8.3 0.0 6.6
22:02 9.2 7.2 87 1011.9 5.4 W 8.3 0.0 6.6
22:03 9.2 7.2 87 1012.1 6.0 SW 8.3 0.0 6.6
22:04 9.2 7.2 87 1012.1 6.0 W 8.3 0.0 6.6
22:05 9.2 7.2 87 1012.1 6.0 W 8.3 0.0 6.6
22:06 9.2 7.2 87 1011.8 6.0 W 8.3 0.0 6.6
22:07 9.2 7.2 87 1012.0 6.0 W 8.3 0.0 6.6
22:08 9.2 7.2 87 1012.1 3.8 SW 8.3 0.0 6.6
22:09 9.2 7.2 87 1012.0 3.8 SW 8.3 0.0 6.6
22:10 9.2 7.2 87 1012.0 4.5 S 6.0 0.0 6.6
22:11 9.2 7.2 87 1012.0 5.4 NW 6.0 0.0 6.6
22:12 9.2 7.2 87 1012.2 5.4 W 6.0 0.0 6.6
22:13 9.2 7.2 87 1012.0 3.8 W 6.0 0.0 6.6
22:15 9.2 7.2 87 1011.9 7.6 SW 7.6 0.0 6.6
22:16 9.2 7.2 87 1012.0 7.6 SW 7.6 0.0 6.6
22:17 9.2 7.2 87 1012.0 5.4 SW 7.6 0.0 6.6
22:18 9.2 7.2 87 1012.2 6.9 SW 7.6 0.0 6.6
22:19 9.2 7.2 87 1012.3 8.3 W 8.3 0.0 6.6
22:20 9.2 7.2 87 1012.3 8.3 W 8.3 0.0 6.6
22:21 9.2 7.2 87 1012.0 8.3 W 8.3 0.0 6.6
22:22 9.2 7.2 87 1012.0 6.0 NW 8.3 0.0 6.6
22:23 9.2 7.2 87 1012.2 6.0 WSW 8.3 0.0 6.6
22:24 9.2 7.2 87 1012.2 6.0 WSW 8.3 0.0 6.6
22:25 9.2 7.2 87 1012.1 6.0 WSW 8.3 0.0 6.6
22:26 9.2 7.2 87 1012.2 5.4 SW 8.3 0.0 6.6
22:27 9.2 7.2 87 1012.0 5.4 SW 8.3 0.0 6.6
22:29 9.2 7.2 87 1012.3 4.5 SW 8.3 0.0 6.6
22:30 9.2 7.2 87 1012.0 3.8 SW 8.3 0.0 6.6
22:31 9.2 7.2 87 1012.2 3.8 SW 6.0 0.0 6.6
22:32 9.2 7.2 87 1012.2 6.9 SW 6.9 0.0 6.6
22:33 9.2 7.2 87 1012.3 6.9 SW 6.9 0.0 6.6
22:34 9.2 7.2 87 1012.3 6.9 SW 6.9 0.0 6.6
22:35 9.2 7.2 87 1012.5 7.6 SW 7.6 0.0 6.6
22:36 9.2 7.2 87 1012.3 7.6 SW 7.6 0.0 6.6
22:37 9.2 7.2 87 1012.2 6.9 SW 7.6 0.0 6.6
22:38 9.1 7.1 87 1012.7 6.9 SW 7.6 0.0 6.6
22:39 9.1 7.1 87 1012.6 6.9 SW 7.6 0.0 6.6
22:40 9.1 7.1 87 1012.2 6.9 WSW 7.6 0.0 6.6
22:41 9.1 7.1 87 1012.2 6.9 WSW 7.6 0.0 6.6
22:42 9.1 7.1 87 1012.2 5.4 SW 7.6 0.0 6.6
22:43 9.1 7.1 87 1012.5 5.4 SW 7.6 0.0 6.6
22:44 9.1 7.1 87 1012.2 4.5 SW 7.6 0.0 6.6
22:46 9.1 7.1 87 1012.3 4.5 SW 6.9 0.0 6.6
22:47 9.1 7.1 87 1012.5 4.5 SW 6.9 0.0 6.6
22:48 9.1 7.1 87 1012.4 4.5 SW 6.9 0.0 6.6
22:49 9.1 7.1 87 1012.4 3.8 SSW 6.9 0.0 6.6
22:50 9.1 7.1 87 1012.4 3.8 SW 6.9 0.0 6.6
22:51 9.1 7.1 87 1012.4 5.4 SW 6.9 0.0 6.6
22:52 9.1 7.1 87 1012.2 4.5 SW 5.4 0.0 6.6
22:53 9.1 7.1 87 1012.4 5.4 W 5.4 0.0 6.6
22:54 9.1 7.1 87 1012.6 5.4 SW 5.4 0.0 6.6
22:55 9.1 7.1 87 1012.3 6.0 SW 6.0 0.0 6.6
22:56 9.1 7.1 87 1012.8 6.0 SW 6.0 0.0 6.6
22:57 9.1 7.1 87 1012.4 6.0 SW 6.0 0.0 6.6
22:58 9.1 7.1 87 1012.4 5.4 SW 6.0 0.0 6.6
22:59 9.1 7.1 87 1012.4 5.4 S 6.0 0.0 6.6
23:00 9.1 7.1 87 1012.5 4.5 SW 6.0 0.0 6.6
23:02 9.1 7.1 87 1012.4 4.5 SW 6.0 0.0 6.6
23:03 9.1 7.1 87 1012.4 4.5 SW 6.0 0.0 6.6
23:04 9.1 7.1 87 1012.6 4.5 SW 6.0 0.0 6.6
23:05 9.1 7.1 87 1012.4 4.5 SW 6.0 0.0 6.6
23:06 9.1 7.1 87 1012.7 5.4 SW 6.0 0.0 6.6
23:07 9.1 7.1 87 1012.5 6.0 SW 6.0 0.0 6.6
23:08 9.1 7.1 87 1012.7 6.0 SW 6.0 0.0 6.6
23:09 9.1 7.1 87 1012.6 6.0 SW 6.0 0.0 6.6
23:10 9.1 7.1 87 1012.5 5.4 SW 6.0 0.0 6.6
23:11 9.1 7.1 87 1012.7 6.0 SW 6.0 0.0 6.6
23:12 9.2 7.2 87 1012.5 6.0 SW 6.0 0.0 6.6
23:13 9.2 7.2 87 1012.6 4.5 S 6.0 0.0 6.6
23:14 9.2 7.2 87 1012.8 3.8 SW 6.0 0.0 6.6
23:15 9.2 7.2 87 1012.5 4.5 W 6.0 0.0 6.6
23:16 9.2 7.2 87 1012.6 3.8 SW 6.0 0.0 6.6
23:17 9.2 7.2 87 1012.5 3.8 SW 6.0 0.0 6.6
23:18 9.2 7.2 87 1012.5 5.4 NW 6.0 0.0 6.6
23:19 9.1 7.1 87 1012.6 5.4 W 6.0 0.0 6.6
23:20 9.1 7.1 87 1012.4 3.8 SW 6.0 0.0 6.6
23:21 9.1 7.1 87 1012.5 5.4 SW 6.0 0.0 6.6
23:22 9.1 7.1 87 1012.6 3.8 W 6.0 0.0 6.6
23:24 9.1 7.1 87 1012.5 3.8 SW 5.4 0.0 6.6
23:25 9.1 7.1 87 1012.6 4.5 SW 5.4 0.0 6.6
23:26 9.1 7.1 87 1012.2 3.8 S 5.4 0.0 6.6
23:27 9.1 7.1 87 1012.3 5.4 SW 5.4 0.0 6.6
23:28 9.1 7.1 87 1012.4 3.8 SW 5.4 0.0 6.6
23:29 9.1 7.1 87 1012.4 3.8 SW 5.4 0.0 6.6
23:30 9.1 7.1 87 1012.4 3.8 SSW 5.4 0.0 6.6
23:31 9.1 7.1 87 1012.6 3.8 SW 5.4 0.0 6.6
23:32 9.1 7.1 87 1012.3 3.8 SW 5.4 0.0 6.6
23:33 9.1 7.1 87 1012.3 3.8 SW 5.4 0.0 6.6
23:34 9.1 7.1 87 1012.5 6.0 SW 6.0 0.0 6.6
23:35 9.1 7.1 87 1012.5 4.5 W 6.0 0.0 6.6
23:36 9.1 7.1 87 1012.3 5.4 WSW 6.0 0.0 6.6
23:37 9.1 7.1 87 1012.7 6.9 SW 6.9 0.0 6.6
23:39 9.1 7.1 87 1012.6 8.3 SW 8.3 0.0 6.6
23:40 9.1 7.1 87 1012.6 7.6 SW 8.3 0.0 6.6
23:41 9.1 7.1 87 1012.5 6.9 W 8.3 0.0 6.6
23:42 9.1 7.1 87 1012.5 6.0 WSW 8.3 0.0 6.6
23:43 9.1 7.1 87 1012.7 6.0 SW 8.3 0.0 6.6
23:44 9.1 7.1 87 1012.7 6.0 SW 8.3 0.0 6.6
23:45 9.1 7.1 87 1012.5 9.8 SW 9.8 0.0 6.6
23:46 9.1 7.1 87 1012.6 8.3 S 9.8 0.0 6.6
23:47 9.1 7.1 87 1012.4 8.3 W 9.8 0.0 6.6
23:48 9.1 7.1 87 1012.3 9.2 SW 9.8 0.0 6.6
23:49 9.1 7.1 87 1012.6 9.2 SW 9.8 0.0 6.6
23:50 9.1 7.1 87 1012.7 9.8 SW 9.8 0.0 6.6
23:51 9.1 7.1 87 1012.6 8.3 SW 9.8 0.0 6.6
23:53 9.1 7.1 87 1012.6 9.2 SSW 9.8 0.0 6.6
23:54 9.1 7.1 87 1012.6 9.8 SW 9.8 0.0 6.6
23:55 9.1 7.1 87 1012.6 8.3 SW 9.8 0.0 6.6
23:56 9.1 7.1 87 1012.4 6.9 SW 9.8 0.0 6.6
23:57 9.1 7.1 87 1012.8 6.9 SW 9.8 0.0 6.6
23:58 9.1 7.1 87 1012.7 7.6 W 9.8 0.0 6.6
23:59 9.1 7.1 87 1012.6 6.9 SW 9.8 0.0 6.6

 

 

UK - WEATHER STATION TOPSITES - UK World Weather Websites

Copyright © Carnkie Weather 2009 - 2021.